Time,TemperatureF,DewpointF,PressureIn,WindDirection,WindDirectionDegrees,WindSpeedMPH,WindSpeedGustMPH,Humidity,HourlyPrecipIn,Conditions,Clouds,dailyrainin,SoftwareType,DateUTC
2013-05-02 00:00:00,65.9,57.4,30.12,ENE,59,6.9,10.4,74,0.00,BKN,,0.00,WeatherDisplay:10.37,2013-05-02 04:00:00,
2013-05-02 00:01:00,65.8,57.3,30.12,ENE,73,8.1,10.4,74,0.00,BKN,,0.00,WeatherDisplay:10.37,2013-05-02 04:01:00,
2013-05-02 00:06:00,65.7,57.2,30.13,East,101,6.4,9.2,74,0.00,BKN,,0.00,WeatherDisplay:10.37,2013-05-02 04:06:00,
2013-05-02 00:11:00,65.6,57.8,30.12,ENE,78,7.9,11.5,76,0.00,BKN,,0.00,WeatherDisplay:10.37,2013-05-02 04:11:00,
2013-05-02 00:12:00,65.6,57.5,30.12,ENE,63,5.2,9.2,75,0.00,BKN,,0.00,WeatherDisplay:10.37,2013-05-02 04:12:00,
2013-05-02 00:16:00,65.5,57.4,30.12,NE,54,2.6,8.1,75,0.00,BKN,,0.00,WeatherDisplay:10.37,2013-05-02 04:16:00,
2013-05-02 00:17:00,65.5,57.7,30.12,ENE,66,2.4,5.0,76,0.00,BKN,,0.00,WeatherDisplay:10.37,2013-05-02 04:17:00,
2013-05-02 00:21:00,65.4,57.3,30.13,ENE,72,5.9,9.2,75,0.00,BKN,,0.00,WeatherDisplay:10.37,2013-05-02 04:21:00,
2013-05-02 00:22:00,65.4,57.6,30.13,ENE,66,6.4,9.2,76,0.00,BKN,,0.00,WeatherDisplay:10.37,2013-05-02 04:22:00,
2013-05-02 00:26:00,65.3,57.2,30.13,ENE,60,1.8,6.9,75,0.00,BKN,,0.00,WeatherDisplay:10.37,2013-05-02 04:26:00,
2013-05-02 00:27:00,65.3,57.2,30.13,ENE,69,1.1,3.5,75,0.00,BKN,,0.00,WeatherDisplay:10.37,2013-05-02 04:27:00,
2013-05-02 00:28:00,65.3,57.2,30.13,ENE,75,3.1,6.9,75,0.00,BKN,,0.00,WeatherDisplay:10.37,2013-05-02 04:28:00,
2013-05-02 00:31:00,65.2,57.1,30.13,East,87,5.2,5.2,75,0.00,BKN,,0.00,WeatherDisplay:10.37,2013-05-02 04:31:00,
2013-05-02 00:32:00,65.2,57.1,30.13,ENE,66,5.5,10.4,75,0.00,BKN,,0.00,WeatherDisplay:10.37,2013-05-02 04:32:00,
2013-05-02 00:33:00,65.2,57.1,30.13,East,89,5.6,8.1,75,0.00,BKN,,0.00,WeatherDisplay:10.37,2013-05-02 04:33:00,
2013-05-02 00:37:00,65.1,57.0,30.13,East,87,4.3,8.1,75,0.00,BKN,,0.00,WeatherDisplay:10.37,2013-05-02 04:37:00,
2013-05-02 00:38:00,65.0,56.9,30.12,East,87,6.5,10.4,75,0.00,BKN,,0.00,WeatherDisplay:10.37,2013-05-02 04:38:00,
2013-05-02 00:42:00,65.0,57.2,30.12,ENE,58,0.0,4.6,76,0.00,BKN,,0.00,WeatherDisplay:10.37,2013-05-02 04:42:00,
2013-05-02 00:43:00,64.9,57.2,30.13,ENE,63,2.2,7.0,76,0.00,BKN,,0.00,WeatherDisplay:10.37,2013-05-02 04:43:00,
2013-05-02 00:47:00,64.9,57.2,30.13,ENE,68,4.5,5.8,76,0.00,BKN,,0.00,WeatherDisplay:10.37,2013-05-02 04:47:00,
2013-05-02 00:48:00,64.8,57.1,30.13,East,79,5.1,8.1,76,0.00,BKN,,0.00,WeatherDisplay:10.37,2013-05-02 04:48:00,
2013-05-02 00:53:00,64.8,57.1,30.12,East,82,2.3,4.6,76,0.00,BKN,,0.00,WeatherDisplay:10.37,2013-05-02 04:53:00,
2013-05-02 00:58:00,64.7,57.0,30.13,ENE,76,2.6,4.6,76,0.00,BKN,,0.00,WeatherDisplay:10.37,2013-05-02 04:58:00,
2013-05-02 00:59:00,64.7,57.0,30.12,East,79,1.3,3.5,76,0.00,BKN,,0.00,WeatherDisplay:10.37,2013-05-02 04:59:00,
2013-05-02 01:03:00,64.6,57.2,30.12,ENE,74,3.5,8.1,77,0.00,BKN,,0.00,WeatherDisplay:10.37,2013-05-02 05:03:00,
2013-05-02 01:04:00,64.6,56.9,30.12,ENE,72,4.1,9.2,76,0.00,BKN,,0.00,WeatherDisplay:10.37,2013-05-02 05:04:00,
2013-05-02 01:08:00,64.5,57.1,30.12,ENE,72,4.4,6.9,77,0.00,BKN,,0.00,WeatherDisplay:10.37,2013-05-02 05:08:00,
2013-05-02 01:09:00,64.5,57.1,30.12,NE,43,4.5,5.8,77,0.00,BKN,,0.00,WeatherDisplay:10.37,2013-05-02 05:09:00,
2013-05-02 01:13:00,64.4,56.7,30.12,ENE,72,3.1,5.8,76,0.00,BKN,,0.00,WeatherDisplay:10.37,2013-05-02 05:13:00,
2013-05-02 01:14:00,64.4,57.0,30.12,ENE,78,3.6,5.8,77,0.00,BKN,,0.00,WeatherDisplay:10.37,2013-05-02 05:14:00,
2013-05-02 01:18:00,64.3,56.9,30.12,East,88,4.9,5.0,77,0.00,BKN,,0.00,WeatherDisplay:10.37,2013-05-02 05:18:00,
2013-05-02 01:19:00,64.3,56.6,30.12,East,83,4.8,6.9,76,0.00,BKN,,0.00,WeatherDisplay:10.37,2013-05-02 05:19:00,
2013-05-02 01:23:00,64.3,56.9,30.12,ENE,78,2.3,6.0,77,0.00,BKN,,0.00,WeatherDisplay:10.37,2013-05-02 05:23:00,
2013-05-02 01:24:00,64.2,56.8,30.12,NE,54,2.6,6.0,77,0.00,BKN,,0.00,WeatherDisplay:10.37,2013-05-02 05:24:00,
2013-05-02 01:29:00,64.1,56.7,30.12,East,93,2.5,8.1,77,0.00,BKN,,0.00,WeatherDisplay:10.37,2013-05-02 05:29:00,
2013-05-02 01:34:00,64.1,57.1,30.12,East,81,1.6,5.8,78,0.00,BKN,,0.00,WeatherDisplay:10.37,2013-05-02 05:34:00,
2013-05-02 01:39:00,64.0,57.0,30.12,East,84,3.9,4.6,78,0.00,BKN,,0.00,WeatherDisplay:10.37,2013-05-02 05:39:00,
2013-05-02 01:40:00,64.0,57.0,30.12,East,85,4.3,6.9,78,0.00,BKN,,0.00,WeatherDisplay:10.37,2013-05-02 05:40:00,
2013-05-02 01:44:00,63.8,56.8,30.12,NE,46,3.2,4.6,78,0.00,BKN,,0.00,WeatherDisplay:10.37,2013-05-02 05:44:00,
2013-05-02 01:45:00,63.9,57.3,30.12,ENE,74,3.2,6.9,79,0.00,BKN,,0.00,WeatherDisplay:10.37,2013-05-02 05:45:00,
2013-05-02 01:50:00,63.7,57.1,30.12,ENE,57,1.8,6.9,79,0.00,BKN,,0.00,WeatherDisplay:10.37,2013-05-02 05:50:00,
2013-05-02 01:55:00,63.6,56.6,30.12,ENE,62,3.7,6.0,78,0.00,BKN,,0.00,WeatherDisplay:10.37,2013-05-02 05:55:00,
2013-05-02 01:56:00,63.6,57.0,30.12,ENE,71,4.3,5.8,79,0.00,BKN,,0.00,WeatherDisplay:10.37,2013-05-02 05:56:00,
2013-05-02 02:00:00,63.5,56.9,30.11,ENE,72,0.6,3.5,79,0.00,BKN,,0.00,WeatherDisplay:10.37,2013-05-02 06:00:00,
2013-05-02 02:01:00,63.5,56.9,30.12,ENE,72,0.4,2.3,79,0.00,OVC,,0.00,WeatherDisplay:10.37,2013-05-02 06:01:00,
2013-05-02 02:05:00,63.5,56.9,30.12,East,95,3.0,3.5,79,0.00,OVC,,0.00,WeatherDisplay:10.37,2013-05-02 06:05:00,
2013-05-02 02:06:00,63.4,56.8,30.11,North,2,2.1,6.9,79,0.00,OVC,,0.00,WeatherDisplay:10.37,2013-05-02 06:06:00,
2013-05-02 02:10:00,63.4,57.1,30.11,NE,43,1.6,2.3,80,0.00,OVC,,0.00,WeatherDisplay:10.37,2013-05-02 06:10:00,
2013-05-02 02:11:00,63.3,57.0,30.11,NE,50,2.3,4.6,80,0.00,OVC,,0.00,WeatherDisplay:10.37,2013-05-02 06:11:00,
2013-05-02 02:15:00,63.3,56.7,30.11,ENE,64,1.3,8.1,79,0.00,OVC,,0.00,WeatherDisplay:10.37,2013-05-02 06:15:00,
2013-05-02 02:16:00,63.2,56.9,30.11,ENE,64,1.3,4.6,80,0.00,OVC,,0.00,WeatherDisplay:10.37,2013-05-02 06:16:00,
2013-05-02 02:17:00,63.2,57.3,30.11,NE,34,1.3,3.5,81,0.00,OVC,,0.00,WeatherDisplay:10.37,2013-05-02 06:17:00,
2013-05-02 02:20:00,63.2,57.3,30.11,NE,34,3.5,4.6,81,0.00,OVC,,0.00,WeatherDisplay:10.37,2013-05-02 06:20:00,
2013-05-02 02:21:00,63.2,56.9,30.11,NE,34,2.3,4.6,80,0.00,OVC,,0.00,WeatherDisplay:10.37,2013-05-02 06:21:00,
2013-05-02 02:22:00,63.2,57.3,30.11,NE,34,0.0,1.1,81,0.00,OVC,,0.00,WeatherDisplay:10.37,2013-05-02 06:22:00,
2013-05-02 02:26:00,63.1,57.5,30.11,NE,39,0.2,1.1,82,0.00,OVC,,0.00,WeatherDisplay:10.37,2013-05-02 06:26:00,
2013-05-02 02:27:00,63.0,57.4,30.11,NNE,18,1.3,3.0,82,0.00,OVC,,0.00,WeatherDisplay:10.37,2013-05-02 06:27:00,
2013-05-02 02:31:00,63.0,57.1,30.11,NE,39,2.3,4.6,81,0.00,OVC,,0.00,WeatherDisplay:10.37,2013-05-02 06:31:00,
2013-05-02 02:32:00,62.9,57.3,30.11,NNE,31,0.8,4.6,82,0.00,OVC,,0.00,WeatherDisplay:10.37,2013-05-02 06:32:00,
2013-05-02 02:33:00,62.9,57.3,30.11,NNE,25,0.2,3.5,82,0.00,OVC,,0.00,WeatherDisplay:10.37,2013-05-02 06:33:00,
2013-05-02 02:36:00,62.9,57.3,30.11,NNE,25,0.0,0.0,82,0.00,OVC,,0.00,WeatherDisplay:10.37,2013-05-02 06:36:00,
2013-05-02 02:37:00,62.9,57.3,30.11,NNE,25,0.0,0.0,82,0.00,OVC,,0.00,WeatherDisplay:10.37,2013-05-02 06:37:00,
2013-05-02 02:38:00,62.8,57.2,30.11,NNE,31,1.0,3.0,82,0.00,OVC,,0.00,WeatherDisplay:10.37,2013-05-02 06:38:00,
2013-05-02 02:41:00,62.8,57.2,30.11,NE,35,0.6,2.0,82,0.00,OVC,,0.00,WeatherDisplay:10.37,2013-05-02 06:41:00,
2013-05-02 02:42:00,62.8,57.2,30.11,NE,40,0.7,3.5,82,0.00,OVC,,0.00,WeatherDisplay:10.37,2013-05-02 06:42:00,
2013-05-02 02:43:00,62.8,57.2,30.11,NE,40,0.1,2.0,82,0.00,OVC,,0.00,WeatherDisplay:10.37,2013-05-02 06:43:00,
2013-05-02 02:46:00,62.7,57.1,30.11,NNE,31,0.0,3.5,82,0.00,OVC,,0.00,WeatherDisplay:10.37,2013-05-02 06:46:00,
2013-05-02 02:47:00,62.7,57.1,30.11,NNE,31,0.0,0.0,82,0.00,OVC,,0.00,WeatherDisplay:10.37,2013-05-02 06:47:00,
2013-05-02 02:48:00,62.6,57.4,30.11,NNE,31,0.0,0.0,83,0.00,OVC,,0.00,WeatherDisplay:10.37,2013-05-02 06:48:00,
2013-05-02 02:52:00,62.6,57.0,30.11,ENE,66,0.0,0.0,82,0.00,OVC,,0.00,WeatherDisplay:10.37,2013-05-02 06:52:00,
2013-05-02 02:53:00,62.6,57.0,30.11,ENE,66,0.0,0.0,82,0.00,OVC,,0.00,WeatherDisplay:10.37,2013-05-02 06:53:00,
2013-05-02 02:54:00,62.6,57.0,30.11,ENE,66,0.5,2.0,82,0.00,OVC,,0.00,WeatherDisplay:10.37,2013-05-02 06:54:00,
2013-05-02 02:57:00,62.6,57.0,30.10,North,10,0.4,4.6,82,0.00,OVC,,0.00,WeatherDisplay:10.37,2013-05-02 06:57:00,
2013-05-02 02:59:00,62.5,56.9,30.11,NE,52,2.5,4.0,82,0.00,OVC,,0.00,WeatherDisplay:10.37,2013-05-02 06:59:00,
2013-05-02 03:02:00,62.5,56.9,30.10,North,6,0.3,3.5,82,0.00,OVC,,0.00,WeatherDisplay:10.37,2013-05-02 07:02:00,
2013-05-02 03:03:00,62.5,56.9,30.11,NNE,28,0.1,1.1,82,0.00,OVC,,0.00,WeatherDisplay:10.37,2013-05-02 07:03:00,
2013-05-02 03:04:00,62.5,56.9,30.11,NNE,33,0.4,3.5,82,0.00,OVC,,0.00,WeatherDisplay:10.37,2013-05-02 07:04:00,
2013-05-02 03:07:00,62.5,56.9,30.11,NE,40,1.7,2.3,82,0.00,OVC,,0.00,WeatherDisplay:10.37,2013-05-02 07:07:00,
2013-05-02 03:08:00,62.5,56.9,30.11,NE,40,1.7,3.5,82,0.00,OVC,,0.00,WeatherDisplay:10.37,2013-05-02 07:08:00,
2013-05-02 03:09:00,62.5,56.9,30.11,NE,38,1.4,3.5,82,0.00,OVC,,0.00,WeatherDisplay:10.37,2013-05-02 07:09:00,
2013-05-02 03:10:00,62.5,56.9,30.11,NE,38,0.2,2.0,82,0.00,OVC,,0.00,WeatherDisplay:10.37,2013-05-02 07:10:00,
2013-05-02 03:12:00,62.4,56.5,30.11,NE,38,1.0,2.0,81,0.00,OVC,,0.00,WeatherDisplay:10.37,2013-05-02 07:12:00,
2013-05-02 03:13:00,62.5,56.6,30.11,NE,38,1.7,3.5,81,0.00,OVC,,0.00,WeatherDisplay:10.37,2013-05-02 07:13:00,
2013-05-02 03:14:00,62.4,56.5,30.11,NE,38,1.9,3.5,81,0.00,OVC,,0.00,WeatherDisplay:10.37,2013-05-02 07:14:00,
2013-05-02 03:15:00,62.4,56.5,30.11,NE,38,1.3,3.5,81,0.00,OVC,,0.00,WeatherDisplay:10.37,2013-05-02 07:15:00,
2013-05-02 03:17:00,62.4,56.5,30.11,NNE,18,2.2,5.0,81,0.00,OVC,,0.00,WeatherDisplay:10.37,2013-05-02 07:17:00,
2013-05-02 03:18:00,62.4,56.8,30.11,NNE,30,2.2,5.8,82,0.00,OVC,,0.00,WeatherDisplay:10.37,2013-05-02 07:18:00,
2013-05-02 03:19:00,62.4,56.8,30.11,NNE,30,0.5,3.5,82,0.00,OVC,,0.00,WeatherDisplay:10.37,2013-05-02 07:19:00,
2013-05-02 03:20:00,62.4,56.8,30.11,NNE,30,0.7,3.5,82,0.00,OVC,,0.00,WeatherDisplay:10.37,2013-05-02 07:20:00,
2013-05-02 03:22:00,62.4,56.8,30.11,NNE,30,0.1,0.0,82,0.00,OVC,,0.00,WeatherDisplay:10.37,2013-05-02 07:22:00,
2013-05-02 03:23:00,62.4,56.5,30.11,NNE,30,0.0,1.1,81,0.00,OVC,,0.00,WeatherDisplay:10.37,2013-05-02 07:23:00,
2013-05-02 03:24:00,62.3,56.7,30.10,NNE,30,0.0,0.0,82,0.00,OVC,,0.00,WeatherDisplay:10.37,2013-05-02 07:24:00,
2013-05-02 03:25:00,62.3,56.7,30.10,NNE,30,0.0,0.0,82,0.00,OVC,,0.00,WeatherDisplay:10.37,2013-05-02 07:25:00,
2013-05-02 03:27:00,62.3,56.4,30.11,NNE,30,0.5,3.5,81,0.00,OVC,,0.00,WeatherDisplay:10.37,2013-05-02 07:27:00,
2013-05-02 03:29:00,62.2,56.3,30.11,NE,56,2.2,5.8,81,0.00,OVC,,0.00,WeatherDisplay:10.37,2013-05-02 07:29:00,
2013-05-02 03:30:00,62.3,56.4,30.11,NE,51,1.0,5.8,81,0.00,OVC,,0.00,WeatherDisplay:10.37,2013-05-02 07:30:00,
2013-05-02 03:32:00,62.2,56.3,30.11,NE,46,0.6,5.0,81,0.00,OVC,,0.00,WeatherDisplay:10.37,2013-05-02 07:32:00,
2013-05-02 03:34:00,62.2,56.3,30.11,NE,50,2.4,5.8,81,0.00,OVC,,0.00,WeatherDisplay:10.37,2013-05-02 07:34:00,
2013-05-02 03:35:00,62.2,56.3,30.11,NE,50,0.7,4.6,81,0.00,OVC,,0.00,WeatherDisplay:10.37,2013-05-02 07:35:00,
2013-05-02 03:37:00,62.2,56.0,30.11,East,81,1.2,3.5,80,0.00,OVC,,0.00,WeatherDisplay:10.37,2013-05-02 07:37:00,
2013-05-02 03:39:00,62.1,56.2,30.10,ENE,59,0.8,3.0,81,0.00,OVC,,0.00,WeatherDisplay:10.37,2013-05-02 07:39:00,
2013-05-02 03:40:00,62.1,56.5,30.11,ENE,75,1.9,4.6,82,0.00,OVC,,0.00,WeatherDisplay:10.37,2013-05-02 07:40:00,
2013-05-02 03:43:00,62.1,56.5,30.11,ENE,76,0.3,2.3,82,0.00,OVC,,0.00,WeatherDisplay:10.37,2013-05-02 07:43:00,
2013-05-02 03:44:00,62.0,56.1,30.11,NE,52,0.9,3.5,81,0.00,OVC,,0.00,WeatherDisplay:10.37,2013-05-02 07:44:00,
2013-05-02 03:45:00,62.1,56.2,30.11,NE,52,0.4,3.5,81,0.00,OVC,,0.00,WeatherDisplay:10.37,2013-05-02 07:45:00,
2013-05-02 03:46:00,62.1,56.2,30.11,NE,52,0.0,1.1,81,0.00,OVC,,0.00,WeatherDisplay:10.37,2013-05-02 07:46:00,
2013-05-02 03:48:00,62.0,56.4,30.11,NE,52,0.0,1.1,82,0.00,OVC,,0.00,WeatherDisplay:10.37,2013-05-02 07:48:00,
2013-05-02 03:49:00,62.0,56.4,30.10,NE,52,0.0,0.0,82,0.00,OVC,,0.00,WeatherDisplay:10.37,2013-05-02 07:49:00,
2013-05-02 03:50:00,62.0,56.4,30.10,NE,52,0.0,0.0,82,0.00,OVC,,0.00,WeatherDisplay:10.37,2013-05-02 07:50:00,
2013-05-02 03:51:00,62.0,56.4,30.10,NE,52,0.0,1.1,82,0.00,OVC,,0.00,WeatherDisplay:10.37,2013-05-02 07:51:00,
2013-05-02 03:53:00,61.9,56.7,30.10,NE,52,0.1,1.1,83,0.00,OVC,,0.00,WeatherDisplay:10.37,2013-05-02 07:53:00,
2013-05-02 03:54:00,61.9,56.7,30.11,ENE,63,2.7,3.5,83,0.00,OVC,,0.00,WeatherDisplay:10.37,2013-05-02 07:54:00,
2013-05-02 03:55:00,61.9,56.3,30.11,ENE,68,2.6,4.0,82,0.00,OVC,,0.00,WeatherDisplay:10.37,2013-05-02 07:55:00,
2013-05-02 03:56:00,61.9,56.3,30.11,ENE,76,3.0,6.0,82,0.00,OVC,,0.00,WeatherDisplay:10.37,2013-05-02 07:56:00,
2013-05-02 03:58:00,61.8,56.2,30.11,East,83,4.1,8.1,82,0.00,OVC,,0.00,WeatherDisplay:10.37,2013-05-02 07:58:00,
2013-05-02 03:59:00,61.8,56.2,30.11,East,81,0.8,3.5,82,0.00,OVC,,0.00,WeatherDisplay:10.37,2013-05-02 07:59:00,
2013-05-02 04:00:00,61.8,56.6,30.10,ENE,59,1.8,2.3,83,0.00,OVC,,0.00,WeatherDisplay:10.37,2013-05-02 08:00:00,
2013-05-02 04:01:00,61.8,56.2,30.11,ENE,60,3.2,5.0,82,0.00,OVC,,0.00,WeatherDisplay:10.37,2013-05-02 08:01:00,
2013-05-02 04:02:00,61.7,56.5,30.11,ENE,69,3.3,4.6,83,0.00,OVC,,0.00,WeatherDisplay:10.37,2013-05-02 08:02:00,
2013-05-02 04:03:00,61.8,55.9,30.11,ENE,72,0.9,3.5,81,0.00,OVC,,0.00,WeatherDisplay:10.37,2013-05-02 08:03:00,
2013-05-02 04:04:00,61.7,56.1,30.11,ENE,72,0.2,3.5,82,0.00,OVC,,0.00,WeatherDisplay:10.37,2013-05-02 08:04:00,
2013-05-02 04:05:00,61.7,56.1,30.11,ENE,72,0.0,1.1,82,0.00,OVC,,0.00,WeatherDisplay:10.37,2013-05-02 08:05:00,
2013-05-02 04:06:00,61.7,56.5,30.11,ENE,72,0.0,0.0,83,0.00,OVC,,0.00,WeatherDisplay:10.37,2013-05-02 08:06:00,
2013-05-02 04:07:00,61.7,56.5,30.11,ENE,71,0.0,0.0,83,0.00,OVC,,0.00,WeatherDisplay:10.37,2013-05-02 08:07:00,
2013-05-02 04:08:00,61.7,56.5,30.11,ENE,72,0.0,0.0,83,0.00,OVC,,0.00,WeatherDisplay:10.37,2013-05-02 08:08:00,
2013-05-02 04:10:00,61.7,56.5,30.11,ENE,72,0.0,0.0,83,0.00,OVC,,0.00,WeatherDisplay:10.37,2013-05-02 08:10:00,
2013-05-02 04:11:00,61.7,56.5,30.11,ENE,72,0.0,0.0,83,0.00,OVC,,0.00,WeatherDisplay:10.37,2013-05-02 08:11:00,
2013-05-02 04:12:00,61.6,56.4,30.11,ENE,72,0.0,0.0,83,0.00,OVC,,0.00,WeatherDisplay:10.37,2013-05-02 08:12:00,
2013-05-02 04:13:00,61.6,56.4,30.11,ENE,72,0.0,0.0,83,0.00,OVC,,0.00,WeatherDisplay:10.37,2013-05-02 08:13:00,
2013-05-02 04:15:00,61.6,56.4,30.11,ENE,72,0.0,0.0,83,0.00,OVC,,0.00,WeatherDisplay:10.37,2013-05-02 08:15:00,
2013-05-02 04:16:00,61.6,56.7,30.11,ENE,72,0.0,0.0,84,0.00,OVC,,0.00,WeatherDisplay:10.37,2013-05-02 08:16:00,
2013-05-02 04:17:00,61.5,56.6,30.11,ENE,72,0.0,0.0,84,0.00,OVC,,0.00,WeatherDisplay:10.37,2013-05-02 08:17:00,
2013-05-02 04:18:00,61.4,56.8,30.11,ENE,72,0.0,0.0,85,0.00,OVC,,0.00,WeatherDisplay:10.37,2013-05-02 08:18:00,
2013-05-02 04:20:00,61.3,56.8,30.11,ENE,72,0.0,0.0,85,0.00,OVC,,0.00,WeatherDisplay:10.37,2013-05-02 08:20:00,
2013-05-02 04:21:00,61.3,56.8,30.11,ENE,72,0.0,1.0,85,0.00,OVC,,0.00,WeatherDisplay:10.37,2013-05-02 08:21:00,
2013-05-02 04:22:00,61.3,56.4,30.11,ENE,75,0.3,3.5,84,0.00,OVC,,0.00,WeatherDisplay:10.37,2013-05-02 08:22:00,
2013-05-02 04:24:00,61.2,56.7,30.11,ENE,75,0.0,1.1,85,0.00,OVC,,0.00,WeatherDisplay:10.37,2013-05-02 08:24:00,
2013-05-02 04:25:00,61.2,56.7,30.11,ENE,75,0.0,0.0,85,0.00,OVC,,0.00,WeatherDisplay:10.37,2013-05-02 08:25:00,
2013-05-02 04:26:00,61.1,56.6,30.11,ENE,75,0.0,0.0,85,0.00,OVC,,0.00,WeatherDisplay:10.37,2013-05-02 08:26:00,
2013-05-02 04:27:00,61.1,56.6,30.11,ENE,75,0.0,0.0,85,0.00,OVC,,0.00,WeatherDisplay:10.37,2013-05-02 08:27:00,
2013-05-02 04:29:00,61.0,56.8,30.11,ENE,75,0.0,0.0,86,0.00,OVC,,0.00,WeatherDisplay:10.37,2013-05-02 08:29:00,
2013-05-02 04:30:00,61.0,56.8,30.11,ENE,75,0.0,0.0,86,0.00,OVC,,0.00,WeatherDisplay:10.37,2013-05-02 08:30:00,
2013-05-02 04:31:00,60.9,56.7,30.11,ENE,75,0.0,0.0,86,0.00,OVC,,0.00,WeatherDisplay:10.37,2013-05-02 08:31:00,
2013-05-02 04:32:00,60.9,56.4,30.11,ENE,75,0.0,1.1,85,0.00,OVC,,0.00,WeatherDisplay:10.37,2013-05-02 08:32:00,
2013-05-02 04:34:00,60.8,56.3,30.11,ENE,75,0.0,0.0,85,0.00,OVC,,0.00,WeatherDisplay:10.37,2013-05-02 08:34:00,
2013-05-02 04:36:00,60.8,56.6,30.11,ENE,75,0.0,0.0,86,0.00,OVC,,0.00,WeatherDisplay:10.37,2013-05-02 08:36:00,
2013-05-02 04:37:00,60.8,56.6,30.11,ENE,75,0.0,0.0,86,0.00,OVC,,0.00,WeatherDisplay:10.37,2013-05-02 08:37:00,
2013-05-02 04:40:00,60.7,56.5,30.11,ENE,75,0.0,0.0,86,0.00,OVC,,0.00,WeatherDisplay:10.37,2013-05-02 08:40:00,
2013-05-02 04:41:00,60.7,56.5,30.11,ENE,75,0.0,1.1,86,0.00,OVC,,0.00,WeatherDisplay:10.37,2013-05-02 08:41:00,
2013-05-02 04:42:00,60.6,56.4,30.11,ENE,68,1.9,6.0,86,0.00,OVC,,0.00,WeatherDisplay:10.37,2013-05-02 08:42:00,
2013-05-02 04:43:00,60.6,56.4,30.11,ENE,58,2.8,5.8,86,0.00,OVC,,0.00,WeatherDisplay:10.37,2013-05-02 08:43:00,
2013-05-02 04:45:00,60.5,56.3,30.11,East,89,1.2,2.3,86,0.00,OVC,,0.00,WeatherDisplay:10.37,2013-05-02 08:45:00,
2013-05-02 04:46:00,60.5,56.3,30.11,East,89,0.0,0.0,86,0.00,OVC,,0.00,WeatherDisplay:10.37,2013-05-02 08:46:00,
2013-05-02 04:47:00,60.4,56.2,30.11,East,89,0.0,0.0,86,0.00,OVC,,0.00,WeatherDisplay:10.37,2013-05-02 08:47:00,
2013-05-02 04:48:00,60.4,56.2,30.11,East,89,0.1,1.1,86,0.00,OVC,,0.00,WeatherDisplay:10.37,2013-05-02 08:48:00,
2013-05-02 04:50:00,60.4,55.9,30.11,ENE,77,0.7,3.5,85,0.00,OVC,,0.00,WeatherDisplay:10.37,2013-05-02 08:50:00,
2013-05-02 04:52:00,60.3,55.8,30.11,East,80,0.0,3.5,85,0.00,OVC,,0.00,WeatherDisplay:10.37,2013-05-02 08:52:00,
2013-05-02 04:53:00,60.3,56.1,30.11,East,79,0.0,1.0,86,0.00,OVC,,0.00,WeatherDisplay:10.37,2013-05-02 08:53:00,
2013-05-02 04:56:00,60.3,56.1,30.11,ENE,76,0.6,3.5,86,0.00,OVC,,0.00,WeatherDisplay:10.37,2013-05-02 08:56:00,
2013-05-02 04:57:00,60.2,56.0,30.11,ENE,76,0.0,0.0,86,0.00,OVC,,0.00,WeatherDisplay:10.37,2013-05-02 08:57:00,
2013-05-02 04:58:00,60.2,56.0,30.11,ENE,76,0.0,0.0,86,0.00,OVC,,0.00,WeatherDisplay:10.37,2013-05-02 08:58:00,
2013-05-02 04:59:00,60.2,56.0,30.11,ENE,76,0.0,0.0,86,0.00,OVC,,0.00,WeatherDisplay:10.37,2013-05-02 08:59:00,
2013-05-02 05:01:00,60.2,56.0,30.12,ENE,76,0.0,0.0,86,0.00,OVC,,0.00,WeatherDisplay:10.37,2013-05-02 09:01:00,
2013-05-02 05:02:00,60.1,55.9,30.11,ENE,76,0.1,0.0,86,0.00,OVC,,0.00,WeatherDisplay:10.37,2013-05-02 09:02:00,
2013-05-02 05:03:00,60.1,56.2,30.11,ENE,76,0.1,1.1,87,0.00,OVC,,0.00,WeatherDisplay:10.37,2013-05-02 09:03:00,
2013-05-02 05:04:00,60.1,56.2,30.12,ENE,76,0.1,1.1,87,0.00,OVC,,0.00,WeatherDisplay:10.37,2013-05-02 09:04:00,
2013-05-02 05:06:00,60.0,56.4,30.11,ENE,76,0.0,0.0,88,0.00,OVC,,0.00,WeatherDisplay:10.37,2013-05-02 09:06:00,
2013-05-02 05:07:00,59.8,56.6,30.11,ENE,76,0.0,0.0,89,0.00,OVC,,0.00,WeatherDisplay:10.37,2013-05-02 09:07:00,
2013-05-02 05:08:00,59.7,56.5,30.11,ENE,76,0.0,0.0,89,0.00,OVC,,0.00,WeatherDisplay:10.37,2013-05-02 09:08:00,
2013-05-02 05:09:00,59.7,56.5,30.11,ENE,76,0.0,0.0,89,0.00,OVC,,0.00,WeatherDisplay:10.37,2013-05-02 09:09:00,
2013-05-02 05:11:00,59.6,56.4,30.11,ENE,76,0.3,3.0,89,0.00,OVC,,0.00,WeatherDisplay:10.37,2013-05-02 09:11:00,
2013-05-02 05:12:00,59.6,56.0,30.12,ENE,61,1.8,3.5,88,0.00,OVC,,0.00,WeatherDisplay:10.37,2013-05-02 09:12:00,
2013-05-02 05:13:00,59.6,55.7,30.11,ENE,61,2.6,3.5,87,0.00,OVC,,0.00,WeatherDisplay:10.37,2013-05-02 09:13:00,
2013-05-02 05:14:00,59.6,55.7,30.11,ENE,62,0.1,3.5,87,0.00,OVC,,0.00,WeatherDisplay:10.37,2013-05-02 09:14:00,
2013-05-02 05:17:00,59.6,55.7,30.11,NE,34,0.3,2.3,87,0.00,OVC,,0.00,WeatherDisplay:10.37,2013-05-02 09:17:00,
2013-05-02 05:18:00,59.6,56.0,30.11,NE,34,0.0,0.0,88,0.00,OVC,,0.00,WeatherDisplay:10.37,2013-05-02 09:18:00,
2013-05-02 05:19:00,59.5,55.9,30.11,NE,34,0.0,0.0,88,0.00,OVC,,0.00,WeatherDisplay:10.37,2013-05-02 09:19:00,
2013-05-02 05:22:00,59.4,56.2,30.11,NE,34,0.0,0.0,89,0.00,OVC,,0.00,WeatherDisplay:10.37,2013-05-02 09:22:00,
2013-05-02 05:23:00,59.4,56.2,30.11,NE,34,0.0,0.0,89,0.00,OVC,,0.00,WeatherDisplay:10.37,2013-05-02 09:23:00,
2013-05-02 05:24:00,59.3,56.1,30.11,NE,34,0.0,0.0,89,0.00,OVC,,0.00,WeatherDisplay:10.37,2013-05-02 09:24:00,
2013-05-02 05:27:00,59.1,56.2,30.11,NE,34,0.0,0.0,90,0.00,OVC,,0.00,WeatherDisplay:10.37,2013-05-02 09:27:00,
2013-05-02 05:28:00,59.1,56.2,30.11,NE,34,0.0,0.0,90,0.00,OVC,,0.00,WeatherDisplay:10.37,2013-05-02 09:28:00,
2013-05-02 05:29:00,59.1,55.9,30.11,NE,34,0.0,0.0,89,0.00,OVC,,0.00,WeatherDisplay:10.37,2013-05-02 09:29:00,
2013-05-02 05:32:00,58.9,55.7,30.11,NE,34,0.0,0.0,89,0.00,OVC,,0.00,WeatherDisplay:10.37,2013-05-02 09:32:00,
2013-05-02 05:33:00,58.9,56.0,30.11,NE,34,0.0,0.0,90,0.00,OVC,,0.00,WeatherDisplay:10.37,2013-05-02 09:33:00,
2013-05-02 05:34:00,58.9,56.0,30.11,NE,34,0.0,0.0,90,0.00,OVC,,0.00,WeatherDisplay:10.37,2013-05-02 09:34:00,
2013-05-02 05:37:00,58.9,56.3,30.11,NE,34,0.0,0.0,91,0.00,OVC,,0.00,WeatherDisplay:10.37,2013-05-02 09:37:00,
2013-05-02 05:38:00,58.8,56.2,30.11,NE,34,0.0,0.0,91,0.00,OVC,,0.00,WeatherDisplay:10.37,2013-05-02 09:38:00,
2013-05-02 05:39:00,58.9,56.6,30.11,NE,34,0.0,0.0,92,0.00,OVC,,0.00,WeatherDisplay:10.37,2013-05-02 09:39:00,
2013-05-02 05:40:00,58.8,56.2,30.11,NE,34,0.0,0.0,91,0.00,OVC,,0.00,WeatherDisplay:10.37,2013-05-02 09:40:00,
2013-05-02 05:42:00,58.8,55.9,30.11,NE,34,0.0,0.0,90,0.00,OVC,,0.00,WeatherDisplay:10.37,2013-05-02 09:42:00,
2013-05-02 05:43:00,58.9,56.0,30.11,NE,34,0.0,0.0,90,0.00,OVC,,0.00,WeatherDisplay:10.37,2013-05-02 09:43:00,
2013-05-02 05:44:00,58.9,56.0,30.11,NE,34,0.0,0.0,90,0.00,OVC,,0.00,WeatherDisplay:10.37,2013-05-02 09:44:00,
2013-05-02 05:45:00,58.9,56.3,30.11,NE,34,0.0,0.0,91,0.00,OVC,,0.00,WeatherDisplay:10.37,2013-05-02 09:45:00,
2013-05-02 05:48:00,58.9,56.0,30.11,NE,34,0.0,0.0,90,0.00,OVC,,0.00,WeatherDisplay:10.37,2013-05-02 09:48:00,
2013-05-02 05:49:00,58.9,56.3,30.11,NE,34,0.0,0.0,91,0.00,OVC,,0.00,WeatherDisplay:10.37,2013-05-02 09:49:00,
2013-05-02 05:50:00,58.8,56.2,30.11,NE,34,0.0,0.0,91,0.00,OVC,,0.00,WeatherDisplay:10.37,2013-05-02 09:50:00,
2013-05-02 05:53:00,58.7,55.8,30.11,NE,34,0.0,1.1,90,0.00,OVC,,0.00,WeatherDisplay:10.37,2013-05-02 09:53:00,
2013-05-02 05:55:00,58.6,56.0,30.11,NE,34,0.0,0.0,91,0.00,OVC,,0.00,WeatherDisplay:10.37,2013-05-02 09:55:00,
2013-05-02 05:58:00,58.6,56.0,30.11,NE,34,0.0,0.0,91,0.00,OVC,,0.00,WeatherDisplay:10.37,2013-05-02 09:58:00,
2013-05-02 05:59:00,58.6,56.0,30.11,NE,34,0.0,0.0,91,0.00,OVC,,0.00,WeatherDisplay:10.37,2013-05-02 09:59:00,
2013-05-02 06:00:00,58.6,56.0,30.12,NE,34,0.0,0.0,91,0.00,OVC,,0.00,WeatherDisplay:10.37,2013-05-02 10:00:00,
2013-05-02 06:03:00,58.5,55.9,30.11,NE,34,0.0,0.0,91,0.00,OVC,,0.00,WeatherDisplay:10.37,2013-05-02 10:03:00,
2013-05-02 06:04:00,58.4,55.8,30.11,NE,34,0.0,0.0,91,0.00,OVC,,0.00,WeatherDisplay:10.37,2013-05-02 10:04:00,
2013-05-02 06:05:00,58.4,55.8,30.11,NE,34,0.0,0.0,91,0.00,OVC,,0.00,WeatherDisplay:10.37,2013-05-02 10:05:00,
2013-05-02 06:09:00,58.3,55.7,30.11,NE,34,0.0,0.0,91,0.00,OVC,,0.00,WeatherDisplay:10.37,2013-05-02 10:09:00,
2013-05-02 06:10:00,58.3,55.7,30.12,NE,34,0.0,0.0,91,0.00,OVC,,0.00,WeatherDisplay:10.37,2013-05-02 10:10:00,
2013-05-02 06:14:00,58.1,55.8,30.12,NE,34,0.0,0.0,92,0.00,OVC,,0.00,WeatherDisplay:10.37,2013-05-02 10:14:00,
2013-05-02 06:15:00,58.1,55.8,30.12,NE,34,0.0,0.0,92,0.00,OVC,,0.00,WeatherDisplay:10.37,2013-05-02 10:15:00,
2013-05-02 06:16:00,58.1,55.8,30.12,NE,34,0.0,0.0,92,0.00,OVC,,0.00,WeatherDisplay:10.37,2013-05-02 10:16:00,
2013-05-02 06:19:00,58.1,55.8,30.12,NE,34,0.0,0.0,92,0.00,OVC,,0.00,WeatherDisplay:10.37,2013-05-02 10:19:00,
2013-05-02 06:20:00,58.0,55.7,30.12,NE,34,0.0,0.0,92,0.00,OVC,,0.00,WeatherDisplay:10.37,2013-05-02 10:20:00,
2013-05-02 06:21:00,58.0,55.7,30.11,NE,34,0.0,0.0,92,0.00,OVC,,0.00,WeatherDisplay:10.37,2013-05-02 10:21:00,
2013-05-02 06:24:00,58.0,55.7,30.11,NE,34,0.0,0.0,92,0.00,OVC,,0.00,WeatherDisplay:10.37,2013-05-02 10:24:00,
2013-05-02 06:25:00,58.0,55.7,30.11,NE,34,0.0,0.0,92,0.00,OVC,,0.00,WeatherDisplay:10.37,2013-05-02 10:25:00,
2013-05-02 06:26:00,58.0,55.7,30.11,NE,34,0.0,0.0,92,0.00,OVC,,0.00,WeatherDisplay:10.37,2013-05-02 10:26:00,
2013-05-02 06:29:00,58.0,55.7,30.12,NE,34,0.0,0.0,92,0.00,OVC,,0.00,WeatherDisplay:10.37,2013-05-02 10:29:00,
2013-05-02 06:31:00,57.9,55.6,30.12,NE,34,0.0,0.0,92,0.00,OVC,,0.00,WeatherDisplay:10.37,2013-05-02 10:31:00,
2013-05-02 06:34:00,57.7,55.7,30.12,NE,34,0.0,0.0,93,0.00,OVC,,0.00,WeatherDisplay:10.37,2013-05-02 10:34:00,
2013-05-02 06:35:00,57.7,55.7,30.12,NE,34,0.0,0.0,93,0.00,OVC,,0.00,WeatherDisplay:10.37,2013-05-02 10:35:00,
2013-05-02 06:36:00,57.7,55.7,30.12,NE,34,0.0,0.0,93,0.00,OVC,,0.00,WeatherDisplay:10.37,2013-05-02 10:36:00,
2013-05-02 06:40:00,57.6,55.3,30.12,NE,34,0.0,0.0,92,0.00,OVC,,0.00,WeatherDisplay:10.37,2013-05-02 10:40:00,
2013-05-02 06:41:00,57.6,55.6,30.12,NE,34,0.0,1.1,93,0.00,OVC,,0.00,WeatherDisplay:10.37,2013-05-02 10:41:00,
2013-05-02 06:42:00,57.6,55.3,30.12,NE,34,0.0,0.0,92,0.00,OVC,,0.00,WeatherDisplay:10.37,2013-05-02 10:42:00,
2013-05-02 06:45:00,57.7,55.7,30.12,NE,34,0.0,0.0,93,0.00,OVC,,0.00,WeatherDisplay:10.37,2013-05-02 10:45:00,
2013-05-02 06:46:00,57.6,55.6,30.12,NE,34,0.0,0.0,93,0.00,OVC,,0.00,WeatherDisplay:10.37,2013-05-02 10:46:00,
2013-05-02 06:47:00,57.6,55.6,30.12,NE,34,0.0,0.0,93,0.00,OVC,,0.00,WeatherDisplay:10.37,2013-05-02 10:47:00,
2013-05-02 06:50:00,57.6,55.6,30.12,NE,34,0.0,0.0,93,0.00,OVC,,0.00,WeatherDisplay:10.37,2013-05-02 10:50:00,
2013-05-02 06:51:00,57.6,55.6,30.12,NE,34,0.0,0.0,93,0.00,OVC,,0.00,WeatherDisplay:10.37,2013-05-02 10:51:00,
2013-05-02 06:52:00,57.6,55.6,30.12,NE,34,0.0,0.0,93,0.00,OVC,,0.00,WeatherDisplay:10.37,2013-05-02 10:52:00,
2013-05-02 06:55:00,57.5,55.5,30.12,NE,34,0.0,0.0,93,0.00,OVC,,0.00,WeatherDisplay:10.37,2013-05-02 10:55:00,
2013-05-02 06:56:00,57.5,55.5,30.12,NE,34,0.0,0.0,93,0.00,OVC,,0.00,WeatherDisplay:10.37,2013-05-02 10:56:00,
2013-05-02 06:57:00,57.5,55.5,30.12,NE,34,0.0,0.0,93,0.00,OVC,,0.00,WeatherDisplay:10.37,2013-05-02 10:57:00,
2013-05-02 07:00:00,57.5,55.5,30.12,NE,34,0.0,0.0,93,0.00,OVC,,0.00,WeatherDisplay:10.37,2013-05-02 11:00:00,
2013-05-02 07:01:00,57.5,55.8,30.12,NE,34,0.0,0.0,94,0.00,BKN,,0.00,WeatherDisplay:10.37,2013-05-02 11:01:00,
2013-05-02 07:02:00,57.4,55.4,30.12,NE,34,0.0,0.0,93,0.00,BKN,,0.00,WeatherDisplay:10.37,2013-05-02 11:02:00,
2013-05-02 07:05:00,57.3,55.6,30.12,NE,34,0.0,0.0,94,0.00,BKN,,0.00,WeatherDisplay:10.37,2013-05-02 11:05:00,
2013-05-02 07:06:00,57.3,55.6,30.12,NE,34,0.0,0.0,94,0.00,BKN,,0.00,WeatherDisplay:10.37,2013-05-02 11:06:00,
2013-05-02 07:07:00,57.3,55.6,30.12,NE,34,0.0,0.0,94,0.00,BKN,,0.00,WeatherDisplay:10.37,2013-05-02 11:07:00,
2013-05-02 07:10:00,57.4,55.7,30.12,NNE,14,0.2,2.3,94,0.00,BKN,,0.00,WeatherDisplay:10.37,2013-05-02 11:10:00,
2013-05-02 07:11:00,57.4,55.4,30.12,NNE,14,0.0,2.3,93,0.00,BKN,,0.00,WeatherDisplay:10.37,2013-05-02 11:11:00,
2013-05-02 07:12:00,57.4,55.7,30.12,NNE,14,0.0,0.0,94,0.00,BKN,,0.00,WeatherDisplay:10.37,2013-05-02 11:12:00,
2013-05-02 07:16:00,57.5,55.2,30.12,NNE,20,0.0,0.0,92,0.00,BKN,,0.00,WeatherDisplay:10.37,2013-05-02 11:16:00,
2013-05-02 07:17:00,57.5,55.2,30.12,NNE,20,0.0,0.0,92,0.00,BKN,,0.00,WeatherDisplay:10.37,2013-05-02 11:17:00,
2013-05-02 07:21:00,57.5,55.5,30.12,NNE,20,0.1,1.1,93,0.00,BKN,,0.00,WeatherDisplay:10.37,2013-05-02 11:21:00,
2013-05-02 07:22:00,57.5,55.5,30.12,NNE,20,0.3,0.0,93,0.00,BKN,,0.00,WeatherDisplay:10.37,2013-05-02 11:22:00,
2013-05-02 07:26:00,57.7,55.7,30.12,NNE,20,1.0,3.5,93,0.00,BKN,,0.00,WeatherDisplay:10.37,2013-05-02 11:26:00,
2013-05-02 07:27:00,57.7,55.7,30.12,NNE,20,0.7,2.3,93,0.00,BKN,,0.00,WeatherDisplay:10.37,2013-05-02 11:27:00,
2013-05-02 07:28:00,57.7,55.7,30.12,NNE,20,0.1,1.1,93,0.00,BKN,,0.00,WeatherDisplay:10.37,2013-05-02 11:28:00,
2013-05-02 07:31:00,57.8,55.5,30.12,NNE,20,0.0,0.0,92,0.00,BKN,,0.00,WeatherDisplay:10.37,2013-05-02 11:31:00,
2013-05-02 07:32:00,57.8,55.5,30.12,NNE,20,0.0,1.1,92,0.00,BKN,,0.00,WeatherDisplay:10.37,2013-05-02 11:32:00,
2013-05-02 07:33:00,57.8,55.5,30.12,NNE,20,0.0,0.0,92,0.00,BKN,,0.00,WeatherDisplay:10.37,2013-05-02 11:33:00,
2013-05-02 07:36:00,57.9,55.3,30.12,NNE,20,0.0,0.0,91,0.00,BKN,,0.00,WeatherDisplay:10.37,2013-05-02 11:36:00,
2013-05-02 07:37:00,57.9,55.3,30.12,NNE,20,0.0,0.0,91,0.00,BKN,,0.00,WeatherDisplay:10.37,2013-05-02 11:37:00,
2013-05-02 07:38:00,57.9,55.6,30.12,NNE,20,0.0,0.0,92,0.00,BKN,,0.00,WeatherDisplay:10.37,2013-05-02 11:38:00,
2013-05-02 07:41:00,58.1,55.2,30.12,NNE,20,0.0,0.0,90,0.00,BKN,,0.00,WeatherDisplay:10.37,2013-05-02 11:41:00,
2013-05-02 07:43:00,58.1,55.2,30.11,NNE,20,0.0,1.1,90,0.00,BKN,,0.00,WeatherDisplay:10.37,2013-05-02 11:43:00,
2013-05-02 07:46:00,58.2,55.3,30.12,NNE,20,0.0,1.1,90,0.00,BKN,,0.00,WeatherDisplay:10.37,2013-05-02 11:46:00,
2013-05-02 07:48:00,58.3,55.7,30.12,NNE,20,0.0,0.0,91,0.00,BKN,,0.00,WeatherDisplay:10.37,2013-05-02 11:48:00,
2013-05-02 07:52:00,58.5,55.9,30.12,NNE,20,0.0,0.0,91,0.00,BKN,,0.00,WeatherDisplay:10.37,2013-05-02 11:52:00,
2013-05-02 07:53:00,58.6,56.0,30.12,NNE,20,0.0,1.1,91,0.00,BKN,,0.00,WeatherDisplay:10.37,2013-05-02 11:53:00,
2013-05-02 07:54:00,58.7,56.1,30.12,NNE,20,0.0,0.0,91,0.00,BKN,,0.00,WeatherDisplay:10.37,2013-05-02 11:54:00,
2013-05-02 07:57:00,58.9,56.0,30.12,NE,45,0.7,3.5,90,0.00,BKN,,0.00,WeatherDisplay:10.37,2013-05-02 11:57:00,
2013-05-02 07:58:00,59.0,56.1,30.12,NE,39,0.1,2.3,90,0.00,BKN,,0.00,WeatherDisplay:10.37,2013-05-02 11:58:00,
2013-05-02 07:59:00,59.1,56.5,30.12,NE,39,0.1,1.1,91,0.00,BKN,,0.00,WeatherDisplay:10.37,2013-05-02 11:59:00,
2013-05-02 08:00:00,59.1,56.5,30.12,NE,39,0.1,1.1,91,0.00,BKN,,0.00,WeatherDisplay:10.37,2013-05-02 12:00:00,
2013-05-02 08:02:00,59.3,56.4,30.12,NNE,12,0.0,3.5,90,0.00,BKN,,0.00,WeatherDisplay:10.37,2013-05-02 12:02:00,
2013-05-02 08:04:00,59.5,56.6,30.12,NNE,18,0.1,1.1,90,0.00,BKN,,0.00,WeatherDisplay:10.37,2013-05-02 12:04:00,
2013-05-02 08:05:00,59.6,56.7,30.12,NNE,19,0.0,0.0,90,0.00,BKN,,0.00,WeatherDisplay:10.37,2013-05-02 12:05:00,
2013-05-02 08:07:00,59.8,56.9,30.13,NNE,18,0.0,0.0,90,0.00,BKN,,0.00,WeatherDisplay:10.37,2013-05-02 12:07:00,
2013-05-02 08:09:00,59.9,56.6,30.13,NNE,19,0.0,0.0,89,0.00,BKN,,0.00,WeatherDisplay:10.37,2013-05-02 12:09:00,
2013-05-02 08:10:00,60.0,56.7,30.13,NNE,19,0.0,0.0,89,0.00,BKN,,0.00,WeatherDisplay:10.37,2013-05-02 12:10:00,
2013-05-02 08:12:00,60.1,56.8,30.13,NNE,19,0.0,0.0,89,0.00,BKN,,0.00,WeatherDisplay:10.37,2013-05-02 12:12:00,
2013-05-02 08:14:00,60.3,57.0,30.13,NNE,14,0.1,2.3,89,0.00,BKN,,0.00,WeatherDisplay:10.37,2013-05-02 12:14:00,
2013-05-02 08:15:00,60.3,57.0,30.13,NNE,14,0.0,1.1,89,0.00,BKN,,0.00,WeatherDisplay:10.37,2013-05-02 12:15:00,
2013-05-02 08:17:00,60.5,57.2,30.13,NNE,26,0.0,3.5,89,0.00,BKN,,0.00,WeatherDisplay:10.37,2013-05-02 12:17:00,
2013-05-02 08:19:00,60.7,57.7,30.13,NE,44,0.0,3.5,90,0.00,BKN,,0.00,WeatherDisplay:10.37,2013-05-02 12:19:00,
2013-05-02 08:20:00,60.7,57.4,30.13,NE,44,0.0,0.0,89,0.00,BKN,,0.00,WeatherDisplay:10.37,2013-05-02 12:20:00,
2013-05-02 08:22:00,60.9,57.6,30.13,NE,44,0.5,2.3,89,0.00,BKN,,0.00,WeatherDisplay:10.37,2013-05-02 12:22:00,
2013-05-02 08:25:00,61.0,57.7,30.13,NE,44,0.2,1.1,89,0.00,BKN,,0.00,WeatherDisplay:10.37,2013-05-02 12:25:00,
2013-05-02 08:27:00,61.2,57.9,30.13,ENE,68,1.9,4.6,89,0.00,BKN,,0.00,WeatherDisplay:10.37,2013-05-02 12:27:00,
2013-05-02 08:30:00,61.4,58.1,30.13,ENE,67,0.0,1.0,89,0.00,BKN,,0.00,WeatherDisplay:10.37,2013-05-02 12:30:00,
2013-05-02 08:32:00,61.5,58.5,30.13,ENE,68,0.8,3.5,90,0.00,BKN,,0.00,WeatherDisplay:10.37,2013-05-02 12:32:00,
2013-05-02 08:35:00,61.8,58.2,30.13,ENE,61,0.6,3.0,88,0.00,BKN,,0.00,WeatherDisplay:10.37,2013-05-02 12:35:00,
2013-05-02 08:37:00,62.0,58.4,30.13,ENE,76,3.2,8.1,88,0.00,BKN,,0.00,WeatherDisplay:10.37,2013-05-02 12:37:00,
2013-05-02 08:40:00,62.2,58.6,30.14,East,81,2.6,3.5,88,0.00,BKN,,0.00,WeatherDisplay:10.37,2013-05-02 12:40:00,
2013-05-02 08:41:00,62.2,58.6,30.14,East,81,2.5,3.5,88,0.00,BKN,,0.00,WeatherDisplay:10.37,2013-05-02 12:41:00,
2013-05-02 08:43:00,62.4,58.8,30.13,NE,53,1.1,3.5,88,0.00,BKN,,0.00,WeatherDisplay:10.37,2013-05-02 12:43:00,
2013-05-02 08:45:00,62.6,59.0,30.13,East,84,0.1,1.1,88,0.00,BKN,,0.00,WeatherDisplay:10.37,2013-05-02 12:45:00,
2013-05-02 08:46:00,62.7,59.1,30.14,East,84,0.1,1.1,88,0.00,BKN,,0.00,WeatherDisplay:10.37,2013-05-02 12:46:00,
2013-05-02 08:48:00,62.9,59.3,30.14,NE,55,2.3,11.0,88,0.00,BKN,,0.00,WeatherDisplay:10.37,2013-05-02 12:48:00,
2013-05-02 08:50:00,63.0,59.1,30.14,NE,53,5.4,5.4,87,0.00,BKN,,0.00,WeatherDisplay:10.37,2013-05-02 12:50:00,
2013-05-02 08:51:00,63.0,59.1,30.14,ENE,72,5.2,9.2,87,0.00,BKN,,0.00,WeatherDisplay:10.37,2013-05-02 12:51:00,
2013-05-02 08:53:00,63.1,58.8,30.14,ENE,59,6.3,9.2,86,0.00,BKN,,0.00,WeatherDisplay:10.37,2013-05-02 12:53:00,
2013-05-02 08:56:00,63.3,59.0,30.14,NE,52,0.5,3.5,86,0.00,BKN,,0.00,WeatherDisplay:10.37,2013-05-02 12:56:00,
2013-05-02 08:58:00,63.5,59.6,30.14,ENE,77,2.9,5.0,87,0.00,BKN,,0.00,WeatherDisplay:10.37,2013-05-02 12:58:00,
2013-05-02 09:01:00,63.9,59.6,30.14,East,91,5.8,12.7,86,0.00,BKN,,0.00,WeatherDisplay:10.37,2013-05-02 13:01:00,
2013-05-02 09:03:00,64.2,59.6,30.14,ENE,59,3.8,5.8,85,0.00,BKN,,0.00,WeatherDisplay:10.37,2013-05-02 13:03:00,
2013-05-02 09:06:00,64.4,59.8,30.14,ENE,62,4.3,5.8,85,0.00,BKN,,0.00,WeatherDisplay:10.37,2013-05-02 13:06:00,
2013-05-02 09:07:00,64.5,60.2,30.14,ENE,73,1.5,3.5,86,0.00,BKN,,0.00,WeatherDisplay:10.37,2013-05-02 13:07:00,
2013-05-02 09:08:00,64.6,60.0,30.14,NE,54,0.8,3.5,85,0.00,BKN,,0.00,WeatherDisplay:10.37,2013-05-02 13:08:00,
2013-05-02 09:11:00,65.0,60.7,30.14,East,84,2.2,5.0,86,0.00,BKN,,0.00,WeatherDisplay:10.37,2013-05-02 13:11:00,
2013-05-02 09:12:00,65.0,60.4,30.14,East,92,5.1,6.9,85,0.00,BKN,,0.00,WeatherDisplay:10.37,2013-05-02 13:12:00,
2013-05-02 09:13:00,65.2,60.6,30.14,ESE,105,3.5,5.8,85,0.00,BKN,,0.00,WeatherDisplay:10.37,2013-05-02 13:13:00,
2013-05-02 09:16:00,65.5,60.9,30.14,East,81,2.3,8.1,85,0.00,BKN,,0.00,WeatherDisplay:10.37,2013-05-02 13:16:00,
2013-05-02 09:17:00,65.6,60.6,30.14,ENE,65,2.4,6.0,84,0.00,BKN,,0.00,WeatherDisplay:10.37,2013-05-02 13:17:00,
2013-05-02 09:18:00,65.7,61.1,30.14,NE,51,1.8,5.8,85,0.00,BKN,,0.00,WeatherDisplay:10.37,2013-05-02 13:18:00,
2013-05-02 09:21:00,65.9,60.9,30.14,NE,55,4.1,5.8,84,0.00,BKN,,0.00,WeatherDisplay:10.37,2013-05-02 13:21:00,
2013-05-02 09:22:00,65.9,60.6,30.14,NE,55,4.3,5.8,83,0.00,BKN,,0.00,WeatherDisplay:10.37,2013-05-02 13:22:00,
2013-05-02 09:24:00,66.0,61.0,30.14,ENE,75,5.3,6.9,84,0.00,BKN,,0.00,WeatherDisplay:10.37,2013-05-02 13:24:00,
2013-05-02 09:26:00,66.2,60.9,30.14,ENE,77,6.1,10.4,83,0.00,BKN,,0.00,WeatherDisplay:10.37,2013-05-02 13:26:00,
2013-05-02 09:27:00,66.2,60.9,30.14,East,90,6.0,8.1,83,0.00,BKN,,0.00,WeatherDisplay:10.37,2013-05-02 13:27:00,
2013-05-02 09:29:00,66.2,60.9,30.15,East,94,6.8,9.2,83,0.00,BKN,,0.00,WeatherDisplay:10.37,2013-05-02 13:29:00,
2013-05-02 09:31:00,66.4,61.1,30.14,East,87,4.4,6.9,83,0.00,BKN,,0.00,WeatherDisplay:10.37,2013-05-02 13:31:00,
2013-05-02 09:32:00,66.4,61.1,30.14,ENE,66,2.4,6.9,83,0.00,BKN,,0.00,WeatherDisplay:10.37,2013-05-02 13:32:00,
2013-05-02 09:33:00,66.4,61.1,30.14,East,79,2.7,4.6,83,0.00,BKN,,0.00,WeatherDisplay:10.37,2013-05-02 13:33:00,
2013-05-02 09:34:00,66.5,61.2,30.14,ENE,73,2.9,4.6,83,0.00,BKN,,0.00,WeatherDisplay:10.37,2013-05-02 13:34:00,
2013-05-02 09:36:00,66.5,61.2,30.14,NNE,25,1.1,3.0,83,0.00,BKN,,0.00,WeatherDisplay:10.37,2013-05-02 13:36:00,
2013-05-02 09:37:00,66.5,60.8,30.14,NE,49,2.9,6.0,82,0.00,BKN,,0.00,WeatherDisplay:10.37,2013-05-02 13:37:00,
2013-05-02 09:38:00,66.6,60.9,30.14,NNE,14,2.9,5.8,82,0.00,BKN,,0.00,WeatherDisplay:10.37,2013-05-02 13:38:00,
2013-05-02 09:39:00,66.5,60.8,30.14,NNE,17,0.2,3.5,82,0.00,BKN,,0.00,WeatherDisplay:10.37,2013-05-02 13:39:00,
2013-05-02 09:41:00,66.5,60.8,30.15,NNE,21,1.3,4.6,82,0.00,BKN,,0.00,WeatherDisplay:10.37,2013-05-02 13:41:00,
2013-05-02 09:42:00,66.5,61.2,30.15,NNE,25,0.5,3.0,83,0.00,BKN,,0.00,WeatherDisplay:10.37,2013-05-02 13:42:00,
2013-05-02 09:43:00,66.5,61.2,30.15,ENE,64,1.0,3.0,83,0.00,BKN,,0.00,WeatherDisplay:10.37,2013-05-02 13:43:00,
2013-05-02 09:44:00,66.5,60.8,30.14,ENE,67,1.6,5.8,82,0.00,BKN,,0.00,WeatherDisplay:10.37,2013-05-02 13:44:00,
2013-05-02 09:47:00,66.6,61.6,30.15,North,357,3.3,6.0,84,0.00,BKN,,0.00,WeatherDisplay:10.37,2013-05-02 13:47:00,
2013-05-02 09:48:00,66.6,60.9,30.15,North,5,4.4,6.9,82,0.00,BKN,,0.00,WeatherDisplay:10.37,2013-05-02 13:48:00,
2013-05-02 09:50:00,66.6,60.9,30.15,NE,47,0.3,3.0,82,0.00,BKN,,0.00,WeatherDisplay:10.37,2013-05-02 13:50:00,
2013-05-02 09:52:00,66.6,61.6,30.15,ENE,60,3.4,5.8,84,0.00,BKN,,0.00,WeatherDisplay:10.37,2013-05-02 13:52:00,
2013-05-02 09:53:00,66.7,61.4,30.15,NE,54,2.9,5.8,83,0.00,BKN,,0.00,WeatherDisplay:10.37,2013-05-02 13:53:00,
2013-05-02 09:54:00,66.7,61.0,30.15,NE,53,3.8,4.6,82,0.00,BKN,,0.00,WeatherDisplay:10.37,2013-05-02 13:54:00,
2013-05-02 09:55:00,66.7,61.0,30.15,East,80,1.7,5.8,82,0.00,BKN,,0.00,WeatherDisplay:10.37,2013-05-02 13:55:00,
2013-05-02 09:57:00,66.9,61.6,30.15,East,79,4.7,6.0,83,0.00,BKN,,0.00,WeatherDisplay:10.37,2013-05-02 13:57:00,
2013-05-02 09:58:00,67.0,61.7,30.15,East,85,3.9,6.9,83,0.00,BKN,,0.00,WeatherDisplay:10.37,2013-05-02 13:58:00,
2013-05-02 09:59:00,67.1,61.8,30.15,NNE,17,1.2,4.6,83,0.00,BKN,,0.00,WeatherDisplay:10.37,2013-05-02 13:59:00,
2013-05-02 10:00:00,67.2,61.9,30.15,East,87,4.9,6.9,83,0.00,BKN,,0.00,WeatherDisplay:10.37,2013-05-02 14:00:00,
2013-05-02 10:03:00,67.6,61.9,30.15,East,85,3.1,8.1,82,0.00,OVC,,0.00,WeatherDisplay:10.37,2013-05-02 14:03:00,
2013-05-02 10:04:00,67.8,62.1,30.15,ENE,68,3.5,6.9,82,0.00,OVC,,0.00,WeatherDisplay:10.37,2013-05-02 14:04:00,
2013-05-02 10:05:00,67.8,62.1,30.15,ENE,63,2.4,6.9,82,0.00,OVC,,0.00,WeatherDisplay:10.37,2013-05-02 14:05:00,
2013-05-02 10:08:00,68.0,61.6,30.15,East,89,5.9,8.1,80,0.00,OVC,,0.00,WeatherDisplay:10.37,2013-05-02 14:08:00,
2013-05-02 10:09:00,68.1,62.0,30.15,East,79,3.8,6.9,81,0.00,OVC,,0.00,WeatherDisplay:10.37,2013-05-02 14:09:00,
2013-05-02 10:10:00,68.1,62.0,30.15,East,93,1.7,4.6,81,0.00,OVC,,0.00,WeatherDisplay:10.37,2013-05-02 14:10:00,
2013-05-02 10:13:00,68.4,62.3,30.15,East,82,6.2,6.9,81,0.00,OVC,,0.00,WeatherDisplay:10.37,2013-05-02 14:13:00,
2013-05-02 10:14:00,68.4,62.3,30.15,ENE,71,6.6,10.4,81,0.00,OVC,,0.00,WeatherDisplay:10.37,2013-05-02 14:14:00,
2013-05-02 10:15:00,68.5,62.1,30.15,ENE,65,5.4,10.4,80,0.00,OVC,,0.00,WeatherDisplay:10.37,2013-05-02 14:15:00,
2013-05-02 10:18:00,68.7,62.3,30.15,ENE,74,2.1,7.0,80,0.00,OVC,,0.00,WeatherDisplay:10.37,2013-05-02 14:18:00,
2013-05-02 10:19:00,68.7,62.3,30.15,East,87,2.9,7.0,80,0.00,OVC,,0.00,WeatherDisplay:10.37,2013-05-02 14:19:00,
2013-05-02 10:20:00,68.7,61.9,30.15,East,85,7.6,8.1,79,0.00,OVC,,0.00,WeatherDisplay:10.37,2013-05-02 14:20:00,
2013-05-02 10:23:00,68.9,62.1,30.15,East,83,6.0,9.2,79,0.00,OVC,,0.00,WeatherDisplay:10.37,2013-05-02 14:23:00,
2013-05-02 10:24:00,68.9,62.1,30.15,ENE,76,6.4,9.2,79,0.00,OVC,,0.00,WeatherDisplay:10.37,2013-05-02 14:24:00,
2013-05-02 10:25:00,68.9,62.1,30.15,East,91,6.8,10.4,79,0.00,OVC,,0.00,WeatherDisplay:10.37,2013-05-02 14:25:00,
2013-05-02 10:29:00,69.1,61.9,30.15,East,85,7.9,10.4,78,0.00,OVC,,0.00,WeatherDisplay:10.37,2013-05-02 14:29:00,
2013-05-02 10:30:00,69.2,61.7,30.15,East,88,4.2,10.4,77,0.00,OVC,,0.00,WeatherDisplay:10.37,2013-05-02 14:30:00,
2013-05-02 10:34:00,69.5,62.0,30.16,NE,52,5.7,9.2,77,0.00,OVC,,0.00,WeatherDisplay:10.37,2013-05-02 14:34:00,
2013-05-02 10:36:00,69.7,62.5,30.16,ENE,65,4.2,6.0,78,0.00,OVC,,0.00,WeatherDisplay:10.37,2013-05-02 14:36:00,
2013-05-02 10:39:00,69.9,62.4,30.15,NE,46,4.7,8.1,77,0.00,OVC,,0.00,WeatherDisplay:10.37,2013-05-02 14:39:00,
2013-05-02 10:41:00,70.0,62.5,30.15,East,93,2.2,5.8,77,0.00,OVC,,0.00,WeatherDisplay:10.37,2013-05-02 14:41:00,
2013-05-02 10:44:00,70.2,62.6,30.15,NE,45,4.2,4.6,77,0.00,OVC,,0.00,WeatherDisplay:10.37,2013-05-02 14:44:00,
2013-05-02 10:46:00,70.2,62.6,30.15,East,90,2.2,6.0,77,0.00,OVC,,0.00,WeatherDisplay:10.37,2013-05-02 14:46:00,
2013-05-02 10:47:00,70.2,62.6,30.15,ENE,75,4.2,7.0,77,0.00,OVC,,0.00,WeatherDisplay:10.37,2013-05-02 14:47:00,
2013-05-02 10:49:00,70.5,62.6,30.15,NE,53,2.5,11.5,76,0.00,OVC,,0.00,WeatherDisplay:10.37,2013-05-02 14:49:00,
2013-05-02 10:50:00,70.5,62.6,30.15,NE,52,2.5,8.1,76,0.00,OVC,,0.00,WeatherDisplay:10.37,2013-05-02 14:50:00,
2013-05-02 10:51:00,70.5,62.6,30.16,ENE,60,4.3,8.1,76,0.00,OVC,,0.00,WeatherDisplay:10.37,2013-05-02 14:51:00,
2013-05-02 10:52:00,70.5,62.9,30.16,ENE,71,5.2,6.9,77,0.00,OVC,,0.00,WeatherDisplay:10.37,2013-05-02 14:52:00,
2013-05-02 10:55:00,70.7,63.5,30.15,ENE,76,4.1,5.8,78,0.00,OVC,,0.00,WeatherDisplay:10.37,2013-05-02 14:55:00,
2013-05-02 10:56:00,70.9,63.7,30.15,East,86,0.6,3.5,78,0.00,OVC,,0.00,WeatherDisplay:10.37,2013-05-02 14:56:00,
2013-05-02 10:57:00,71.0,63.8,30.16,NE,56,2.4,4.6,78,0.00,OVC,,0.00,WeatherDisplay:10.37,2013-05-02 14:57:00,
2013-05-02 11:00:00,71.0,63.1,30.16,NNE,29,1.2,6.9,76,0.00,OVC,,0.00,WeatherDisplay:10.37,2013-05-02 15:00:00,
2013-05-02 11:01:00,71.0,63.4,30.16,East,83,1.1,5.0,77,0.00,BKN,,0.00,WeatherDisplay:10.37,2013-05-02 15:01:00,
2013-05-02 11:02:00,71.0,63.8,30.16,East,82,5.7,9.2,78,0.00,BKN,,0.00,WeatherDisplay:10.37,2013-05-02 15:02:00,
2013-05-02 11:05:00,71.2,63.6,30.16,ENE,78,7.0,11.5,77,0.00,BKN,,0.00,WeatherDisplay:10.37,2013-05-02 15:05:00,
2013-05-02 11:06:00,71.3,63.3,30.16,ENE,59,3.7,8.1,76,0.00,BKN,,0.00,WeatherDisplay:10.37,2013-05-02 15:06:00,
2013-05-02 11:08:00,71.4,63.4,30.16,ENE,58,4.8,6.9,76,0.00,BKN,,0.00,WeatherDisplay:10.37,2013-05-02 15:08:00,
2013-05-02 11:10:00,71.5,63.5,30.16,ENE,59,1.1,3.5,76,0.00,BKN,,0.00,WeatherDisplay:10.37,2013-05-02 15:10:00,
2013-05-02 11:11:00,71.5,63.9,30.16,NE,46,1.3,4.0,77,0.00,BKN,,0.00,WeatherDisplay:10.37,2013-05-02 15:11:00,
2013-05-02 11:13:00,71.5,63.5,30.16,East,101,4.9,9.2,76,0.00,BKN,,0.00,WeatherDisplay:10.37,2013-05-02 15:13:00,
2013-05-02 11:15:00,71.7,64.1,30.16,East,91,6.1,8.1,77,0.00,BKN,,0.00,WeatherDisplay:10.37,2013-05-02 15:15:00,
2013-05-02 11:16:00,71.7,64.1,30.16,East,81,6.5,9.2,77,0.00,BKN,,0.00,WeatherDisplay:10.37,2013-05-02 15:16:00,
2013-05-02 11:17:00,71.9,63.9,30.16,East,83,5.6,9.2,76,0.00,BKN,,0.00,WeatherDisplay:10.37,2013-05-02 15:17:00,
2013-05-02 11:18:00,72.0,63.6,30.16,East,81,4.1,6.9,75,0.00,BKN,,0.00,WeatherDisplay:10.37,2013-05-02 15:18:00,
2013-05-02 11:21:00,72.2,63.8,30.16,ENE,77,3.1,6.9,75,0.00,BKN,,0.00,WeatherDisplay:10.37,2013-05-02 15:21:00,
2013-05-02 11:22:00,72.3,63.9,30.16,ENE,66,1.6,5.8,75,0.00,BKN,,0.00,WeatherDisplay:10.37,2013-05-02 15:22:00,
2013-05-02 11:23:00,72.4,63.6,30.16,East,97,3.4,4.6,74,0.00,BKN,,0.00,WeatherDisplay:10.37,2013-05-02 15:23:00,
2013-05-02 11:26:00,72.5,64.1,30.15,ENE,71,0.8,2.0,75,0.00,BKN,,0.00,WeatherDisplay:10.37,2013-05-02 15:26:00,
2013-05-02 11:27:00,72.5,64.1,30.15,ENE,71,0.7,3.5,75,0.00,BKN,,0.00,WeatherDisplay:10.37,2013-05-02 15:27:00,
2013-05-02 11:28:00,72.6,63.8,30.16,ENE,70,0.1,1.1,74,0.00,BKN,,0.00,WeatherDisplay:10.37,2013-05-02 15:28:00,
2013-05-02 11:31:00,72.7,64.3,30.15,East,81,2.5,3.5,75,0.00,BKN,,0.00,WeatherDisplay:10.37,2013-05-02 15:31:00,
2013-05-02 11:32:00,72.7,64.3,30.15,East,81,2.1,3.5,75,0.00,BKN,,0.00,WeatherDisplay:10.37,2013-05-02 15:32:00,
2013-05-02 11:34:00,72.8,63.6,30.15,ENE,57,2.3,5.0,73,0.00,BKN,,0.00,WeatherDisplay:10.37,2013-05-02 15:34:00,
2013-05-02 11:36:00,72.9,63.7,30.16,East,90,1.6,3.5,73,0.00,BKN,,0.00,WeatherDisplay:10.37,2013-05-02 15:36:00,
2013-05-02 11:37:00,72.9,64.1,30.16,ENE,58,2.0,3.5,74,0.00,BKN,,0.00,WeatherDisplay:10.37,2013-05-02 15:37:00,
2013-05-02 11:39:00,72.9,64.9,30.16,East,88,2.2,3.5,76,0.00,BKN,,0.00,WeatherDisplay:10.37,2013-05-02 15:39:00,
2013-05-02 11:41:00,73.2,64.8,30.16,ESE,111,1.3,4.6,75,0.00,BKN,,0.00,WeatherDisplay:10.37,2013-05-02 15:41:00,
2013-05-02 11:42:00,73.2,64.8,30.16,ESE,111,0.9,4.6,75,0.00,BKN,,0.00,WeatherDisplay:10.37,2013-05-02 15:42:00,
2013-05-02 11:44:00,73.1,64.3,30.16,ENE,68,0.2,3.5,74,0.00,BKN,,0.00,WeatherDisplay:10.37,2013-05-02 15:44:00,
2013-05-02 11:47:00,73.2,64.8,30.16,WNW,302,0.7,3.5,75,0.00,BKN,,0.00,WeatherDisplay:10.37,2013-05-02 15:47:00,
2013-05-02 11:49:00,73.3,64.9,30.16,NE,46,1.8,4.6,75,0.00,BKN,,0.00,WeatherDisplay:10.37,2013-05-02 15:49:00,
2013-05-02 11:52:00,73.6,64.4,30.16,NE,54,1.8,6.9,73,0.00,BKN,,0.00,WeatherDisplay:10.37,2013-05-02 15:52:00,
2013-05-02 11:53:00,73.6,64.8,30.16,ENE,63,0.4,1.1,74,0.00,BKN,,0.00,WeatherDisplay:10.37,2013-05-02 15:53:00,
2013-05-02 11:54:00,73.7,64.9,30.16,East,81,2.9,8.1,74,0.00,BKN,,0.00,WeatherDisplay:10.37,2013-05-02 15:54:00,
2013-05-02 11:57:00,74.1,64.9,30.16,East,98,4.4,9.2,73,0.00,BKN,,0.00,WeatherDisplay:10.37,2013-05-02 15:57:00,
2013-05-02 11:58:00,74.2,65.4,30.16,East,82,3.6,5.8,74,0.00,BKN,,0.00,WeatherDisplay:10.37,2013-05-02 15:58:00,
2013-05-02 11:59:00,74.4,64.8,30.16,ENE,59,3.3,5.8,72,0.00,BKN,,0.00,WeatherDisplay:10.37,2013-05-02 15:59:00,
2013-05-02 12:02:00,74.8,65.2,30.16,ENE,61,1.5,3.5,72,0.00,BKN,,0.00,WeatherDisplay:10.37,2013-05-02 16:02:00,
2013-05-02 12:03:00,74.9,65.3,30.16,ENE,69,3.5,4.0,72,0.00,BKN,,0.00,WeatherDisplay:10.37,2013-05-02 16:03:00,
2013-05-02 12:04:00,74.9,64.9,30.16,East,79,3.2,6.9,71,0.00,BKN,,0.00,WeatherDisplay:10.37,2013-05-02 16:04:00,
2013-05-02 12:07:00,75.1,65.1,30.16,NNE,30,3.2,5.8,71,0.00,BKN,,0.00,WeatherDisplay:10.37,2013-05-02 16:07:00,
2013-05-02 12:08:00,75.0,65.4,30.16,NE,44,2.4,5.8,72,0.00,BKN,,0.00,WeatherDisplay:10.37,2013-05-02 16:08:00,
2013-05-02 12:09:00,75.1,65.1,30.16,NE,39,2.9,8.0,71,0.00,BKN,,0.00,WeatherDisplay:10.37,2013-05-02 16:09:00,
2013-05-02 12:12:00,74.8,65.2,30.16,NNE,28,1.7,3.5,72,0.00,BKN,,0.00,WeatherDisplay:10.37,2013-05-02 16:12:00,
2013-05-02 12:13:00,74.8,65.2,30.16,North,358,1.7,5.0,72,0.00,BKN,,0.00,WeatherDisplay:10.37,2013-05-02 16:13:00,
2013-05-02 12:14:00,74.7,64.3,30.16,North,353,4.1,5.8,70,0.00,BKN,,0.00,WeatherDisplay:10.37,2013-05-02 16:14:00,
2013-05-02 12:18:00,74.6,64.6,30.16,NE,50,3.8,6.9,71,0.00,BKN,,0.00,WeatherDisplay:10.37,2013-05-02 16:18:00,
2013-05-02 12:19:00,74.6,64.2,30.16,NE,52,3.9,6.9,70,0.00,BKN,,0.00,WeatherDisplay:10.37,2013-05-02 16:19:00,
2013-05-02 12:20:00,74.7,64.7,30.16,NE,54,2.8,5.0,71,0.00,BKN,,0.00,WeatherDisplay:10.37,2013-05-02 16:20:00,
2013-05-02 12:23:00,74.9,65.3,30.16,ENE,74,1.1,4.6,72,0.00,BKN,,0.00,WeatherDisplay:10.37,2013-05-02 16:23:00,
2013-05-02 12:24:00,74.9,64.0,30.16,NNE,27,2.9,8.1,69,0.00,BKN,,0.00,WeatherDisplay:10.37,2013-05-02 16:24:00,
2013-05-02 12:25:00,74.9,64.9,30.16,NE,41,2.4,5.8,71,0.00,BKN,,0.00,WeatherDisplay:10.37,2013-05-02 16:25:00,
2013-05-02 12:28:00,75.0,65.4,30.16,East,84,2.8,6.9,72,0.00,BKN,,0.00,WeatherDisplay:10.37,2013-05-02 16:28:00,
2013-05-02 12:29:00,75.0,65.4,30.16,East,84,0.9,3.5,72,0.00,BKN,,0.00,WeatherDisplay:10.37,2013-05-02 16:29:00,
2013-05-02 12:30:00,75.1,65.9,30.16,East,84,0.3,1.1,73,0.00,BKN,,0.00,WeatherDisplay:10.37,2013-05-02 16:30:00,
2013-05-02 12:33:00,74.9,65.3,30.16,ENE,58,0.6,5.8,72,0.00,BKN,,0.00,WeatherDisplay:10.37,2013-05-02 16:33:00,
2013-05-02 12:35:00,74.9,65.7,30.16,ENE,66,1.1,3.0,73,0.00,BKN,,0.00,WeatherDisplay:10.37,2013-05-02 16:35:00,
2013-05-02 12:38:00,74.9,65.3,30.16,ENE,68,2.5,4.0,72,0.00,BKN,,0.00,WeatherDisplay:10.37,2013-05-02 16:38:00,
2013-05-02 12:40:00,75.0,65.4,30.16,ENE,77,1.3,4.6,72,0.00,BKN,,0.00,WeatherDisplay:10.37,2013-05-02 16:40:00,
2013-05-02 12:41:00,75.1,65.5,30.16,ENE,59,4.0,5.0,72,0.00,BKN,,0.00,WeatherDisplay:10.37,2013-05-02 16:41:00,
2013-05-02 12:43:00,75.1,65.1,30.16,NNE,23,3.8,4.6,71,0.00,BKN,,0.00,WeatherDisplay:10.37,2013-05-02 16:43:00,
2013-05-02 12:45:00,75.1,64.6,30.16,NNE,15,0.4,3.5,70,0.00,BKN,,0.00,WeatherDisplay:10.37,2013-05-02 16:45:00,
2013-05-02 12:46:00,75.1,64.6,30.16,ENE,63,2.1,4.6,70,0.00,BKN,,0.00,WeatherDisplay:10.37,2013-05-02 16:46:00,
2013-05-02 12:48:00,75.1,64.6,30.15,NNE,15,5.1,8.1,70,0.00,BKN,,0.00,WeatherDisplay:10.37,2013-05-02 16:48:00,
2013-05-02 12:50:00,75.1,65.5,30.15,ENE,65,1.7,5.8,72,0.00,BKN,,0.00,WeatherDisplay:10.37,2013-05-02 16:50:00,
2013-05-02 12:51:00,75.0,65.4,30.15,NE,55,1.1,4.6,72,0.00,BKN,,0.00,WeatherDisplay:10.37,2013-05-02 16:51:00,
2013-05-02 12:52:00,75.1,65.5,30.16,NE,40,3.7,5.8,72,0.00,BKN,,0.00,WeatherDisplay:10.37,2013-05-02 16:52:00,
2013-05-02 12:54:00,75.2,64.7,30.15,NNE,18,3.1,6.9,70,0.00,BKN,,0.00,WeatherDisplay:10.37,2013-05-02 16:54:00,
2013-05-02 12:55:00,75.2,65.1,30.15,NE,35,4.0,6.0,71,0.00,BKN,,0.00,WeatherDisplay:10.37,2013-05-02 16:55:00,
2013-05-02 12:56:00,75.3,65.6,30.15,NNE,21,4.2,6.9,72,0.00,BKN,,0.00,WeatherDisplay:10.37,2013-05-02 16:56:00,
2013-05-02 12:57:00,75.3,65.2,30.15,NE,46,3.0,5.8,71,0.00,BKN,,0.00,WeatherDisplay:10.37,2013-05-02 16:57:00,
2013-05-02 12:59:00,75.6,66.3,30.15,NE,53,1.5,3.5,73,0.00,BKN,,0.00,WeatherDisplay:10.37,2013-05-02 16:59:00,
2013-05-02 13:00:00,75.9,66.6,30.15,North,358,1.5,5.0,73,0.00,BKN,,0.00,WeatherDisplay:10.37,2013-05-02 17:00:00,
2013-05-02 13:01:00,75.9,65.4,30.15,North,4,2.6,5.8,70,0.00,BKN,,0.00,WeatherDisplay:10.37,2013-05-02 17:01:00,
2013-05-02 13:02:00,75.9,65.4,30.15,NNE,18,0.0,5.8,70,0.00,BKN,,0.00,WeatherDisplay:10.37,2013-05-02 17:02:00,
2013-05-02 13:04:00,76.2,66.5,30.15,ENE,59,0.1,1.1,72,0.00,BKN,,0.00,WeatherDisplay:10.37,2013-05-02 17:04:00,
2013-05-02 13:06:00,76.3,66.6,30.15,ENE,75,0.5,6.0,72,0.00,BKN,,0.00,WeatherDisplay:10.37,2013-05-02 17:06:00,
2013-05-02 13:07:00,76.5,66.8,30.15,NE,50,4.3,9.2,72,0.00,BKN,,0.00,WeatherDisplay:10.37,2013-05-02 17:07:00,
2013-05-02 13:09:00,76.8,65.9,30.15,ENE,71,1.0,4.6,69,0.00,BKN,,0.00,WeatherDisplay:10.37,2013-05-02 17:09:00,
2013-05-02 13:11:00,76.9,66.0,30.15,NNW,344,1.5,3.5,69,0.00,BKN,,0.00,WeatherDisplay:10.37,2013-05-02 17:11:00,
2013-05-02 13:12:00,76.9,66.8,30.15,NE,53,0.7,3.5,71,0.00,BKN,,0.00,WeatherDisplay:10.37,2013-05-02 17:12:00,
2013-05-02 13:15:00,76.6,65.7,30.15,North,358,3.9,8.1,69,0.00,BKN,,0.00,WeatherDisplay:10.37,2013-05-02 17:15:00,
2013-05-02 13:16:00,76.3,65.0,30.15,North,7,4.8,8.1,68,0.00,BKN,,0.00,WeatherDisplay:10.37,2013-05-02 17:16:00,
2013-05-02 13:17:00,76.0,65.1,30.14,NNW,333,4.2,8.0,69,0.00,BKN,,0.00,WeatherDisplay:10.37,2013-05-02 17:17:00,
2013-05-02 13:20:00,76.0,65.9,30.15,NE,43,4.3,8.0,71,0.00,BKN,,0.00,WeatherDisplay:10.37,2013-05-02 17:20:00,
2013-05-02 13:21:00,76.2,66.5,30.15,ENE,69,6.1,8.1,72,0.00,BKN,,0.00,WeatherDisplay:10.37,2013-05-02 17:21:00,
2013-05-02 13:22:00,76.4,66.3,30.15,NE,54,2.7,11.5,71,0.00,BKN,,0.00,WeatherDisplay:10.37,2013-05-02 17:22:00,
2013-05-02 13:25:00,76.9,66.0,30.15,East,97,3.6,5.8,69,0.00,BKN,,0.00,WeatherDisplay:10.37,2013-05-02 17:25:00,
2013-05-02 13:26:00,77.3,66.7,30.15,NE,55,2.7,4.6,70,0.00,BKN,,0.00,WeatherDisplay:10.37,2013-05-02 17:26:00,
2013-05-02 13:27:00,77.4,66.8,30.15,ENE,59,2.1,4.6,70,0.00,BKN,,0.00,WeatherDisplay:10.37,2013-05-02 17:27:00,
2013-05-02 13:30:00,78.3,67.3,30.15,East,80,3.7,4.6,69,0.00,BKN,,0.00,WeatherDisplay:10.37,2013-05-02 17:30:00,
2013-05-02 13:32:00,78.7,67.7,30.14,East,88,1.3,4.6,69,0.00,BKN,,0.00,WeatherDisplay:10.37,2013-05-02 17:32:00,
2013-05-02 13:33:00,79.1,67.2,30.14,ENE,67,3.7,6.9,67,0.00,BKN,,0.00,WeatherDisplay:10.37,2013-05-02 17:33:00,
2013-05-02 13:35:00,79.0,65.3,30.14,NNW,347,6.9,10.4,63,0.00,BKN,,0.00,WeatherDisplay:10.37,2013-05-02 17:35:00,
2013-05-02 13:37:00,78.6,66.7,30.14,North,0,4.1,8.1,67,0.00,BKN,,0.00,WeatherDisplay:10.37,2013-05-02 17:37:00,
2013-05-02 13:38:00,78.6,66.7,30.14,North,2,2.6,6.9,67,0.00,BKN,,0.00,WeatherDisplay:10.37,2013-05-02 17:38:00,
2013-05-02 13:40:00,78.8,66.5,30.14,NNE,29,2.2,4.6,66,0.00,BKN,,0.00,WeatherDisplay:10.37,2013-05-02 17:40:00,
2013-05-02 13:42:00,79.0,68.0,30.14,East,82,4.9,7.0,69,0.00,BKN,,0.00,WeatherDisplay:10.37,2013-05-02 17:42:00,
2013-05-02 13:43:00,79.3,67.4,30.14,East,95,4.3,8.1,67,0.00,BKN,,0.00,WeatherDisplay:10.37,2013-05-02 17:43:00,
2013-05-02 13:45:00,79.2,66.0,30.14,North,6,3.5,6.9,64,0.00,BKN,,0.00,WeatherDisplay:10.37,2013-05-02 17:45:00,
2013-05-02 13:47:00,79.1,67.2,30.14,ENE,66,4.1,8.0,67,0.00,BKN,,0.00,WeatherDisplay:10.37,2013-05-02 17:47:00,
2013-05-02 13:48:00,79.1,67.2,30.14,ENE,73,5.3,8.1,67,0.00,BKN,,0.00,WeatherDisplay:10.37,2013-05-02 17:48:00,
2013-05-02 13:51:00,79.8,67.4,30.14,East,100,5.0,8.1,66,0.00,BKN,,0.00,WeatherDisplay:10.37,2013-05-02 17:51:00,
2013-05-02 13:52:00,80.1,67.3,30.13,NNE,26,3.5,5.8,65,0.00,BKN,,0.00,WeatherDisplay:10.37,2013-05-02 17:52:00,
2013-05-02 13:53:00,80.4,67.1,30.13,North,11,2.4,6.9,64,0.00,BKN,,0.00,WeatherDisplay:10.37,2013-05-02 17:53:00,
2013-05-02 13:57:00,80.3,65.6,30.13,NNW,343,3.6,5.0,61,0.00,BKN,,0.00,WeatherDisplay:10.37,2013-05-02 17:57:00,
2013-05-02 13:58:00,80.0,66.3,30.13,NNW,342,0.7,4.6,63,0.00,BKN,,0.00,WeatherDisplay:10.37,2013-05-02 17:58:00,
2013-05-02 13:59:00,80.0,66.3,30.13,NNW,342,0.1,3.5,63,0.00,BKN,,0.00,WeatherDisplay:10.37,2013-05-02 17:59:00,
2013-05-02 14:02:00,79.9,65.7,30.13,NNW,331,4.1,9.2,62,0.00,BKN,,0.00,WeatherDisplay:10.37,2013-05-02 18:02:00,
2013-05-02 14:03:00,79.5,66.3,30.13,NNW,344,2.3,8.1,64,0.00,BKN,,0.00,WeatherDisplay:10.37,2013-05-02 18:03:00,
2013-05-02 14:04:00,79.3,67.4,30.13,NNE,33,1.9,5.8,67,0.00,BKN,,0.00,WeatherDisplay:10.37,2013-05-02 18:04:00,
2013-05-02 14:07:00,78.8,66.9,30.13,ENE,72,1.9,5.8,67,0.00,BKN,,0.00,WeatherDisplay:10.37,2013-05-02 18:07:00,
2013-05-02 14:08:00,79.1,68.1,30.13,NE,53,3.7,4.6,69,0.00,BKN,,0.00,WeatherDisplay:10.37,2013-05-02 18:08:00,
2013-05-02 14:09:00,79.1,67.2,30.13,NNE,20,2.4,4.6,67,0.00,BKN,,0.00,WeatherDisplay:10.37,2013-05-02 18:09:00,
2013-05-02 14:12:00,79.9,68.0,30.13,ENE,69,5.1,12.0,67,0.00,BKN,,0.00,WeatherDisplay:10.37,2013-05-02 18:12:00,
2013-05-02 14:13:00,80.1,66.4,30.13,NNW,347,6.8,11.5,63,0.00,BKN,,0.00,WeatherDisplay:10.37,2013-05-02 18:13:00,
2013-05-02 14:14:00,79.9,65.7,30.13,North,0,3.4,6.9,62,0.00,BKN,,0.00,WeatherDisplay:10.37,2013-05-02 18:14:00,
2013-05-02 14:17:00,79.9,67.5,30.12,East,79,1.4,4.6,66,0.00,BKN,,0.00,WeatherDisplay:10.37,2013-05-02 18:17:00,
2013-05-02 14:18:00,80.0,68.1,30.13,ENE,66,2.5,4.6,67,0.00,BKN,,0.00,WeatherDisplay:10.37,2013-05-02 18:18:00,
2013-05-02 14:19:00,80.1,68.2,30.13,ENE,76,1.2,4.6,67,0.00,BKN,,0.00,WeatherDisplay:10.37,2013-05-02 18:19:00,
2013-05-02 14:23:00,80.7,66.9,30.12,North,355,0.1,1.1,63,0.00,BKN,,0.00,WeatherDisplay:10.37,2013-05-02 18:23:00,
2013-05-02 14:24:00,80.9,68.5,30.13,ENE,73,4.4,6.9,66,0.00,BKN,,0.00,WeatherDisplay:10.37,2013-05-02 18:24:00,
2013-05-02 14:28:00,81.2,67.4,30.12,NNW,337,1.3,4.6,63,0.00,BKN,,0.00,WeatherDisplay:10.37,2013-05-02 18:28:00,
2013-05-02 14:29:00,81.1,68.2,30.12,East,86,2.6,7.0,65,0.00,BKN,,0.00,WeatherDisplay:10.37,2013-05-02 18:29:00,
2013-05-02 14:30:00,81.2,69.2,30.12,East,81,6.0,10.4,67,0.00,BKN,,0.00,WeatherDisplay:10.37,2013-05-02 18:30:00,
2013-05-02 14:33:00,81.7,68.3,30.12,ENE,60,3.2,4.6,64,0.00,BKN,,0.00,WeatherDisplay:10.37,2013-05-02 18:33:00,
2013-05-02 14:34:00,81.8,68.4,30.12,NE,49,3.2,4.6,64,0.00,BKN,,0.00,WeatherDisplay:10.37,2013-05-02 18:34:00,
2013-05-02 14:35:00,81.8,67.5,30.12,North,6,1.9,4.0,62,0.00,BKN,,0.00,WeatherDisplay:10.37,2013-05-02 18:35:00,
2013-05-02 14:38:00,81.0,67.7,30.12,NE,36,3.6,6.0,64,0.00,BKN,,0.00,WeatherDisplay:10.37,2013-05-02 18:38:00,
2013-05-02 14:39:00,80.8,66.6,30.12,NE,54,2.9,6.9,62,0.00,BKN,,0.00,WeatherDisplay:10.37,2013-05-02 18:39:00,
2013-05-02 14:40:00,80.7,66.9,30.12,ENE,58,2.0,4.6,63,0.00,BKN,,0.00,WeatherDisplay:10.37,2013-05-02 18:40:00,
2013-05-02 14:43:00,80.2,66.9,30.12,ENE,74,0.4,3.5,64,0.00,BKN,,0.00,WeatherDisplay:10.37,2013-05-02 18:43:00,
2013-05-02 14:44:00,80.2,66.9,30.12,ENE,74,0.0,3.5,64,0.00,BKN,,0.00,WeatherDisplay:10.37,2013-05-02 18:44:00,
2013-05-02 14:45:00,80.1,66.4,30.12,NNE,29,0.2,1.1,63,0.00,BKN,,0.00,WeatherDisplay:10.37,2013-05-02 18:45:00,
2013-05-02 14:49:00,79.4,67.0,30.12,NE,45,0.2,1.1,66,0.00,BKN,,0.00,WeatherDisplay:10.37,2013-05-02 18:49:00,
2013-05-02 14:50:00,79.2,67.3,30.11,NE,51,1.4,3.5,67,0.00,BKN,,0.00,WeatherDisplay:10.37,2013-05-02 18:50:00,
2013-05-02 14:54:00,79.0,67.1,30.11,NE,43,2.5,3.5,67,0.00,BKN,,0.00,WeatherDisplay:10.37,2013-05-02 18:54:00,
2013-05-02 14:55:00,78.9,66.6,30.11,North,355,1.4,4.6,66,0.00,BKN,,0.00,WeatherDisplay:10.37,2013-05-02 18:55:00,
2013-05-02 14:59:00,78.9,67.4,30.11,NE,47,2.8,6.9,68,0.00,BKN,,0.00,WeatherDisplay:10.37,2013-05-02 18:59:00,
2013-05-02 15:00:00,79.1,67.2,30.11,ENE,62,2.8,5.0,67,0.00,BKN,,0.00,WeatherDisplay:10.37,2013-05-02 19:00:00,
2013-05-02 15:04:00,79.5,67.6,30.12,ENE,61,2.0,4.0,67,0.00,BKN,,0.00,WeatherDisplay:10.37,2013-05-02 19:04:00,
2013-05-02 15:05:00,79.6,67.7,30.11,NE,38,2.5,6.9,67,0.00,BKN,,0.00,WeatherDisplay:10.37,2013-05-02 19:05:00,
2013-05-02 15:06:00,79.8,67.4,30.12,NE,41,0.4,1.0,66,0.00,BKN,,0.00,WeatherDisplay:10.37,2013-05-02 19:06:00,
2013-05-02 15:09:00,80.0,68.1,30.11,ENE,63,5.8,5.8,67,0.00,BKN,,0.00,WeatherDisplay:10.37,2013-05-02 19:09:00,
2013-05-02 15:10:00,80.1,68.2,30.11,NNE,30,4.3,9.2,67,0.00,BKN,,0.00,WeatherDisplay:10.37,2013-05-02 19:10:00,
2013-05-02 15:11:00,80.2,67.4,30.11,ENE,62,2.7,5.8,65,0.00,BKN,,0.00,WeatherDisplay:10.37,2013-05-02 19:11:00,
2013-05-02 15:14:00,80.2,67.4,30.11,East,92,3.1,4.6,65,0.00,BKN,,0.00,WeatherDisplay:10.37,2013-05-02 19:14:00,
2013-05-02 15:15:00,80.2,67.4,30.11,ENE,62,2.4,6.9,65,0.00,BKN,,0.00,WeatherDisplay:10.37,2013-05-02 19:15:00,
2013-05-02 15:16:00,80.3,67.9,30.11,North,7,0.7,3.5,66,0.00,BKN,,0.00,WeatherDisplay:10.37,2013-05-02 19:16:00,
2013-05-02 15:19:00,79.6,67.7,30.11,ENE,69,3.7,8.0,67,0.00,BKN,,0.00,WeatherDisplay:10.37,2013-05-02 19:19:00,
2013-05-02 15:20:00,79.7,67.8,30.11,ENE,67,4.3,8.1,67,0.00,BKN,,0.00,WeatherDisplay:10.37,2013-05-02 19:20:00,
2013-05-02 15:21:00,79.6,67.7,30.11,ENE,74,0.8,5.8,67,0.00,BKN,,0.00,WeatherDisplay:10.37,2013-05-02 19:21:00,
2013-05-02 15:24:00,79.5,67.1,30.11,North,9,4.8,4.8,66,0.00,BKN,,0.00,WeatherDisplay:10.37,2013-05-02 19:24:00,
2013-05-02 15:25:00,79.5,67.1,30.11,NE,46,2.1,8.1,66,0.00,BKN,,0.00,WeatherDisplay:10.37,2013-05-02 19:25:00,
2013-05-02 15:26:00,79.5,67.1,30.11,NE,40,2.6,4.6,66,0.00,BKN,,0.00,WeatherDisplay:10.37,2013-05-02 19:26:00,
2013-05-02 15:27:00,79.5,67.1,30.11,NNE,26,3.8,8.1,66,0.00,BKN,,0.00,WeatherDisplay:10.37,2013-05-02 19:27:00,
2013-05-02 15:29:00,79.4,66.6,30.11,NE,55,2.6,5.0,65,0.00,BKN,,0.00,WeatherDisplay:10.37,2013-05-02 19:29:00,
2013-05-02 15:30:00,79.4,66.6,30.11,ENE,66,3.7,4.6,65,0.00,BKN,,0.00,WeatherDisplay:10.37,2013-05-02 19:30:00,
2013-05-02 15:31:00,79.4,66.6,30.11,NE,48,1.2,5.8,65,0.00,BKN,,0.00,WeatherDisplay:10.37,2013-05-02 19:31:00,
2013-05-02 15:32:00,79.4,67.0,30.11,NE,46,0.9,3.5,66,0.00,BKN,,0.00,WeatherDisplay:10.37,2013-05-02 19:32:00,
2013-05-02 15:35:00,79.4,66.6,30.11,NE,55,0.7,3.5,65,0.00,BKN,,0.00,WeatherDisplay:10.37,2013-05-02 19:35:00,
2013-05-02 15:36:00,79.5,67.1,30.11,NE,52,1.4,3.5,66,0.00,BKN,,0.00,WeatherDisplay:10.37,2013-05-02 19:36:00,
2013-05-02 15:38:00,80.0,67.6,30.11,ENE,58,2.3,3.5,66,0.00,BKN,,0.00,WeatherDisplay:10.37,2013-05-02 19:38:00,
2013-05-02 15:40:00,80.3,67.9,30.11,ENE,68,2.4,3.5,66,0.00,BKN,,0.00,WeatherDisplay:10.37,2013-05-02 19:40:00,
2013-05-02 15:41:00,80.5,67.6,30.10,ENE,72,2.4,4.6,65,0.00,BKN,,0.00,WeatherDisplay:10.37,2013-05-02 19:41:00,
2013-05-02 15:43:00,81.6,67.8,30.10,East,86,3.8,6.9,63,0.00,BKN,,0.00,WeatherDisplay:10.37,2013-05-02 19:43:00,
2013-05-02 15:45:00,82.2,68.8,30.10,ENE,71,1.2,3.5,64,0.00,BKN,,0.00,WeatherDisplay:10.37,2013-05-02 19:45:00,
2013-05-02 15:46:00,82.3,68.4,30.10,ENE,71,1.2,2.3,63,0.00,BKN,,0.00,WeatherDisplay:10.37,2013-05-02 19:46:00,
2013-05-02 15:49:00,82.9,68.5,30.10,East,91,0.7,2.3,62,0.00,BKN,,0.00,WeatherDisplay:10.37,2013-05-02 19:49:00,
2013-05-02 15:51:00,83.4,68.5,30.10,ENE,65,3.3,8.1,61,0.00,BKN,,0.00,WeatherDisplay:10.37,2013-05-02 19:51:00,
2013-05-02 15:54:00,83.9,69.0,30.10,NE,46,4.4,9.2,61,0.00,BKN,,0.00,WeatherDisplay:10.37,2013-05-02 19:54:00,
2013-05-02 15:56:00,84.0,67.1,30.10,NNE,24,6.4,8.1,57,0.00,BKN,,0.00,WeatherDisplay:10.37,2013-05-02 19:56:00,
2013-05-02 15:57:00,84.0,68.1,30.10,NNE,14,4.8,9.2,59,0.00,BKN,,0.00,WeatherDisplay:10.37,2013-05-02 19:57:00,
2013-05-02 15:59:00,83.9,68.0,30.10,North,356,2.4,4.6,59,0.00,BKN,,0.00,WeatherDisplay:10.37,2013-05-02 19:59:00,
2013-05-02 16:01:00,83.8,68.4,30.09,ENE,59,1.0,3.5,60,0.00,BKN,,0.00,WeatherDisplay:10.37,2013-05-02 20:01:00,
2013-05-02 16:02:00,83.8,69.4,30.10,East,85,2.2,4.6,62,0.00,BKN,,0.00,WeatherDisplay:10.37,2013-05-02 20:02:00,
2013-05-02 16:04:00,83.7,68.8,30.10,East,99,1.9,3.5,61,0.00,BKN,,0.00,WeatherDisplay:10.37,2013-05-02 20:04:00,
2013-05-02 16:06:00,83.8,68.9,30.10,ENE,76,4.9,6.9,61,0.00,BKN,,0.00,WeatherDisplay:10.37,2013-05-02 20:06:00,
2013-05-02 16:07:00,84.0,68.6,30.09,East,80,6.4,10.4,60,0.00,BKN,,0.00,WeatherDisplay:10.37,2013-05-02 20:07:00,
2013-05-02 16:09:00,84.4,68.5,30.09,ENE,67,3.4,6.9,59,0.00,BKN,,0.00,WeatherDisplay:10.37,2013-05-02 20:09:00,
2013-05-02 16:11:00,84.3,67.9,30.09,East,94,3.5,4.6,58,0.00,BKN,,0.00,WeatherDisplay:10.37,2013-05-02 20:11:00,
2013-05-02 16:12:00,84.3,68.4,30.09,East,89,3.8,6.9,59,0.00,BKN,,0.00,WeatherDisplay:10.37,2013-05-02 20:12:00,
2013-05-02 16:14:00,83.9,68.5,30.09,North,11,3.7,8.1,60,0.00,BKN,,0.00,WeatherDisplay:10.37,2013-05-02 20:14:00,
2013-05-02 16:16:00,83.6,68.2,30.09,East,79,5.7,10.0,60,0.00,BKN,,0.00,WeatherDisplay:10.37,2013-05-02 20:16:00,
2013-05-02 16:17:00,83.6,68.2,30.09,ENE,76,7.2,11.5,60,0.00,BKN,,0.00,WeatherDisplay:10.37,2013-05-02 20:17:00,
2013-05-02 16:19:00,83.4,67.6,30.09,ENE,63,2.7,4.6,59,0.00,BKN,,0.00,WeatherDisplay:10.37,2013-05-02 20:19:00,
2013-05-02 16:22:00,83.2,67.9,30.09,East,90,5.8,9.2,60,0.00,BKN,,0.00,WeatherDisplay:10.37,2013-05-02 20:22:00,
2013-05-02 16:23:00,83.3,68.0,30.09,ENE,73,4.9,9.0,60,0.00,BKN,,0.00,WeatherDisplay:10.37,2013-05-02 20:23:00,
2013-05-02 16:25:00,83.2,67.9,30.09,East,80,4.0,5.0,60,0.00,BKN,,0.00,WeatherDisplay:10.37,2013-05-02 20:25:00,
2013-05-02 16:27:00,83.0,67.2,30.09,NNE,25,3.2,5.8,59,0.00,BKN,,0.00,WeatherDisplay:10.37,2013-05-02 20:27:00,
2013-05-02 16:28:00,82.8,67.5,30.09,East,97,3.1,4.6,60,0.00,BKN,,0.00,WeatherDisplay:10.37,2013-05-02 20:28:00,
2013-05-02 16:30:00,82.8,68.0,30.09,ENE,71,5.0,10.0,61,0.00,BKN,,0.00,WeatherDisplay:10.37,2013-05-02 20:30:00,
2013-05-02 16:32:00,82.7,67.4,30.09,ENE,61,5.1,8.1,60,0.00,BKN,,0.00,WeatherDisplay:10.37,2013-05-02 20:32:00,
2013-05-02 16:33:00,82.7,67.4,30.09,East,91,5.6,6.9,60,0.00,BKN,,0.00,WeatherDisplay:10.37,2013-05-02 20:33:00,
2013-05-02 16:35:00,83.1,67.3,30.09,ENE,69,5.9,8.1,59,0.00,BKN,,0.00,WeatherDisplay:10.37,2013-05-02 20:35:00,
2013-05-02 16:37:00,83.2,66.4,30.09,NNE,21,1.4,4.6,57,0.00,BKN,,0.00,WeatherDisplay:10.37,2013-05-02 20:37:00,
2013-05-02 16:39:00,83.3,68.4,30.08,North,358,1.3,3.5,61,0.00,BKN,,0.00,WeatherDisplay:10.37,2013-05-02 20:39:00,
2013-05-02 16:41:00,83.5,68.6,30.08,ENE,69,0.6,2.0,61,0.00,BKN,,0.00,WeatherDisplay:10.37,2013-05-02 20:41:00,
2013-05-02 16:42:00,83.8,67.9,30.08,East,82,4.3,6.0,59,0.00,BKN,,0.00,WeatherDisplay:10.37,2013-05-02 20:42:00,
2013-05-02 16:43:00,83.8,67.9,30.08,East,82,4.6,6.0,59,0.00,BKN,,0.00,WeatherDisplay:10.37,2013-05-02 20:43:00,
2013-05-02 16:44:00,84.0,68.1,30.08,ESE,111,4.2,6.9,59,0.00,BKN,,0.00,WeatherDisplay:10.37,2013-05-02 20:44:00,
2013-05-02 16:45:00,84.2,68.8,30.08,ENE,69,1.5,5.8,60,0.00,BKN,,0.00,WeatherDisplay:10.37,2013-05-02 20:45:00,
2013-05-02 16:46:00,84.4,69.0,30.08,North,359,0.9,4.6,60,0.00,BKN,,0.00,WeatherDisplay:10.37,2013-05-02 20:46:00,
2013-05-02 16:48:00,84.5,67.6,30.08,East,79,1.7,5.8,57,0.00,BKN,,0.00,WeatherDisplay:10.37,2013-05-02 20:48:00,
2013-05-02 16:49:00,84.5,68.1,30.08,North,350,1.8,5.0,58,0.00,BKN,,0.00,WeatherDisplay:10.37,2013-05-02 20:49:00,
2013-05-02 16:50:00,84.4,67.5,30.08,NNE,27,5.5,9.2,57,0.00,BKN,,0.00,WeatherDisplay:10.37,2013-05-02 20:50:00,
2013-05-02 16:51:00,84.3,67.4,30.08,North,353,3.7,9.2,57,0.00,BKN,,0.00,WeatherDisplay:10.37,2013-05-02 20:51:00,
2013-05-02 16:53:00,84.0,67.1,30.08,North,6,2.6,5.8,57,0.00,BKN,,0.00,WeatherDisplay:10.37,2013-05-02 20:53:00,
2013-05-02 16:55:00,84.2,67.8,30.08,North,7,7.0,11.5,58,0.00,BKN,,0.00,WeatherDisplay:10.37,2013-05-02 20:55:00,
2013-05-02 16:56:00,84.3,67.9,30.08,ENE,57,7.0,11.5,58,0.00,BKN,,0.00,WeatherDisplay:10.37,2013-05-02 20:56:00,
2013-05-02 16:58:00,84.1,67.2,30.08,NE,42,6.3,10.4,57,0.00,BKN,,0.00,WeatherDisplay:10.37,2013-05-02 20:58:00,
2013-05-02 17:00:00,83.9,67.5,30.08,ENE,70,4.4,8.1,58,0.00,BKN,,0.00,WeatherDisplay:10.37,2013-05-02 21:00:00,
2013-05-02 17:01:00,83.7,66.8,30.08,NE,47,2.8,8.0,57,0.00,BKN,,0.00,WeatherDisplay:10.37,2013-05-02 21:01:00,
2013-05-02 17:03:00,83.4,67.1,30.08,ENE,66,5.6,8.1,58,0.00,BKN,,0.00,WeatherDisplay:10.37,2013-05-02 21:03:00,
2013-05-02 17:05:00,83.4,67.1,30.08,ENE,68,4.4,9.2,58,0.00,BKN,,0.00,WeatherDisplay:10.37,2013-05-02 21:05:00,
2013-05-02 17:06:00,83.3,67.0,30.08,ENE,64,6.1,10.4,58,0.00,BKN,,0.00,WeatherDisplay:10.37,2013-05-02 21:06:00,
2013-05-02 17:08:00,83.1,66.8,30.08,ENE,76,5.5,7.0,58,0.00,BKN,,0.00,WeatherDisplay:10.37,2013-05-02 21:08:00,
2013-05-02 17:10:00,83.0,67.2,30.08,ENE,69,3.5,6.0,59,0.00,BKN,,0.00,WeatherDisplay:10.37,2013-05-02 21:10:00,
2013-05-02 17:11:00,83.1,66.8,30.08,East,86,4.6,6.9,58,0.00,BKN,,0.00,WeatherDisplay:10.37,2013-05-02 21:11:00,
2013-05-02 17:13:00,83.0,66.2,30.08,ENE,76,4.0,8.1,57,0.00,BKN,,0.00,WeatherDisplay:10.37,2013-05-02 21:13:00,
2013-05-02 17:15:00,82.9,66.6,30.08,NE,49,4.7,7.0,58,0.00,BKN,,0.00,WeatherDisplay:10.37,2013-05-02 21:15:00,
2013-05-02 17:16:00,82.8,66.0,30.08,East,79,5.3,8.1,57,0.00,BKN,,0.00,WeatherDisplay:10.37,2013-05-02 21:16:00,
2013-05-02 17:17:00,82.7,65.9,30.08,ENE,76,4.6,8.1,57,0.00,BKN,,0.00,WeatherDisplay:10.37,2013-05-02 21:17:00,
2013-05-02 17:18:00,82.6,66.3,30.08,ENE,63,5.0,6.9,58,0.00,BKN,,0.00,WeatherDisplay:10.37,2013-05-02 21:18:00,
2013-05-02 17:20:00,82.5,66.2,30.08,East,80,6.5,8.1,58,0.00,BKN,,0.00,WeatherDisplay:10.37,2013-05-02 21:20:00,
2013-05-02 17:21:00,82.6,66.8,30.08,ENE,74,5.5,10.4,59,0.00,BKN,,0.00,WeatherDisplay:10.37,2013-05-02 21:21:00,
2013-05-02 17:22:00,82.7,67.4,30.08,East,86,5.6,10.4,60,0.00,BKN,,0.00,WeatherDisplay:10.37,2013-05-02 21:22:00,
2013-05-02 17:23:00,82.9,66.1,30.08,East,88,9.2,12.7,57,0.00,BKN,,0.00,WeatherDisplay:10.37,2013-05-02 21:23:00,
2013-05-02 17:25:00,83.2,66.4,30.08,ENE,65,6.4,11.5,57,0.00,BKN,,0.00,WeatherDisplay:10.37,2013-05-02 21:25:00,
2013-05-02 17:27:00,83.3,67.0,30.08,East,82,5.8,9.0,58,0.00,BKN,,0.00,WeatherDisplay:10.37,2013-05-02 21:27:00,
2013-05-02 17:29:00,83.5,65.6,30.07,East,91,7.3,11.5,55,0.00,BKN,,0.00,WeatherDisplay:10.37,2013-05-02 21:29:00,
2013-05-02 17:30:00,83.6,66.2,30.07,ENE,75,9.0,11.5,56,0.00,BKN,,0.00,WeatherDisplay:10.37,2013-05-02 21:30:00,
2013-05-02 17:32:00,83.8,66.4,30.07,ENE,72,6.7,11.5,56,0.00,BKN,,0.00,WeatherDisplay:10.37,2013-05-02 21:32:00,
2013-05-02 17:34:00,84.1,67.2,30.07,East,80,3.1,9.2,57,0.00,BKN,,0.00,WeatherDisplay:10.37,2013-05-02 21:34:00,
2013-05-02 17:35:00,84.3,67.4,30.07,East,100,2.5,4.6,57,0.00,BKN,,0.00,WeatherDisplay:10.37,2013-05-02 21:35:00,
2013-05-02 17:37:00,84.4,67.5,30.07,ENE,65,3.6,6.9,57,0.00,BKN,,0.00,WeatherDisplay:10.37,2013-05-02 21:37:00,
2013-05-02 17:39:00,84.7,67.8,30.07,East,82,3.8,9.0,57,0.00,BKN,,0.00,WeatherDisplay:10.37,2013-05-02 21:39:00,
2013-05-02 17:40:00,84.8,66.8,30.07,NE,52,7.7,11.5,55,0.00,BKN,,0.00,WeatherDisplay:10.37,2013-05-02 21:40:00,
2013-05-02 17:42:00,84.9,66.4,30.07,NE,46,7.8,11.5,54,0.00,BKN,,0.00,WeatherDisplay:10.37,2013-05-02 21:42:00,
2013-05-02 17:45:00,84.9,66.4,30.07,ENE,74,5.2,10.4,54,0.00,BKN,,0.00,WeatherDisplay:10.37,2013-05-02 21:45:00,
2013-05-02 17:46:00,84.9,66.9,30.07,NE,53,3.4,8.1,55,0.00,BKN,,0.00,WeatherDisplay:10.37,2013-05-02 21:46:00,
2013-05-02 17:47:00,84.9,66.4,30.07,East,80,7.6,14.0,54,0.00,BKN,,0.00,WeatherDisplay:10.37,2013-05-02 21:47:00,
2013-05-02 17:50:00,84.6,66.7,30.07,ESE,113,5.3,8.1,55,0.00,BKN,,0.00,WeatherDisplay:10.37,2013-05-02 21:50:00,
2013-05-02 17:51:00,84.6,66.1,30.07,ENE,72,5.1,9.2,54,0.00,BKN,,0.00,WeatherDisplay:10.37,2013-05-02 21:51:00,
2013-05-02 17:52:00,84.3,65.3,30.07,East,82,5.3,10.4,53,0.00,BKN,,0.00,WeatherDisplay:10.37,2013-05-02 21:52:00,
2013-05-02 17:55:00,83.7,65.8,30.07,East,83,6.8,9.2,55,0.00,BKN,,0.00,WeatherDisplay:10.37,2013-05-02 21:55:00,
2013-05-02 17:56:00,83.6,65.2,30.07,East,91,7.3,9.2,54,0.00,BKN,,0.00,WeatherDisplay:10.37,2013-05-02 21:56:00,
2013-05-02 17:57:00,83.5,65.6,30.07,ENE,68,4.5,10.4,55,0.00,BKN,,0.00,WeatherDisplay:10.37,2013-05-02 21:57:00,
2013-05-02 18:01:00,83.0,65.7,30.07,NE,46,3.8,6.9,56,0.00,OVC,,0.00,WeatherDisplay:10.37,2013-05-02 22:01:00,
2013-05-02 18:02:00,82.6,65.3,30.07,East,86,4.8,9.2,56,0.00,OVC,,0.00,WeatherDisplay:10.37,2013-05-02 22:02:00,
2013-05-02 18:03:00,82.5,65.7,30.07,ENE,63,2.0,8.1,57,0.00,OVC,,0.00,WeatherDisplay:10.37,2013-05-02 22:03:00,
2013-05-02 18:06:00,82.1,65.4,30.07,East,89,4.5,6.0,57,0.00,OVC,,0.00,WeatherDisplay:10.37,2013-05-02 22:06:00,
2013-05-02 18:07:00,82.1,65.4,30.07,ENE,78,5.7,10.4,57,0.00,OVC,,0.00,WeatherDisplay:10.37,2013-05-02 22:07:00,
2013-05-02 18:08:00,82.0,64.8,30.07,East,91,6.4,11.5,56,0.00,OVC,,0.00,WeatherDisplay:10.37,2013-05-02 22:08:00,
2013-05-02 18:11:00,81.9,64.7,30.07,East,85,3.7,11.5,56,0.00,OVC,,0.00,WeatherDisplay:10.37,2013-05-02 22:11:00,
2013-05-02 18:12:00,81.8,64.6,30.07,East,99,2.7,4.6,56,0.00,OVC,,0.00,WeatherDisplay:10.37,2013-05-02 22:12:00,
2013-05-02 18:13:00,81.6,64.4,30.07,ENE,78,4.9,5.0,56,0.00,OVC,,0.00,WeatherDisplay:10.37,2013-05-02 22:13:00,
2013-05-02 18:16:00,81.4,64.2,30.07,ENE,70,4.2,6.9,56,0.00,OVC,,0.00,WeatherDisplay:10.37,2013-05-02 22:16:00,
2013-05-02 18:17:00,81.2,64.0,30.07,ENE,72,3.7,6.0,56,0.00,OVC,,0.00,WeatherDisplay:10.37,2013-05-02 22:17:00,
2013-05-02 18:18:00,81.1,64.4,30.07,NE,52,3.1,6.9,57,0.00,OVC,,0.00,WeatherDisplay:10.37,2013-05-02 22:18:00,
2013-05-02 18:21:00,80.9,64.7,30.07,East,95,4.0,6.0,58,0.00,OVC,,0.00,WeatherDisplay:10.37,2013-05-02 22:21:00,
2013-05-02 18:22:00,80.8,64.6,30.07,East,101,2.5,8.1,58,0.00,OVC,,0.00,WeatherDisplay:10.37,2013-05-02 22:22:00,
2013-05-02 18:23:00,80.7,64.5,30.07,East,80,2.6,4.6,58,0.00,OVC,,0.00,WeatherDisplay:10.37,2013-05-02 22:23:00,
2013-05-02 18:26:00,80.5,64.9,30.07,ENE,73,0.8,3.5,59,0.00,OVC,,0.00,WeatherDisplay:10.37,2013-05-02 22:26:00,
2013-05-02 18:27:00,80.3,64.7,30.07,East,91,1.5,3.5,59,0.00,OVC,,0.00,WeatherDisplay:10.37,2013-05-02 22:27:00,
2013-05-02 18:28:00,80.3,64.7,30.07,ENE,57,2.7,5.8,59,0.00,OVC,,0.00,WeatherDisplay:10.37,2013-05-02 22:28:00,
2013-05-02 18:29:00,80.3,64.7,30.07,ENE,78,3.2,6.0,59,0.00,OVC,,0.00,WeatherDisplay:10.37,2013-05-02 22:29:00,
2013-05-02 18:31:00,80.1,64.0,30.07,East,94,6.0,7.0,58,0.00,OVC,,0.00,WeatherDisplay:10.37,2013-05-02 22:31:00,
2013-05-02 18:32:00,80.0,63.9,30.07,East,81,5.2,9.2,58,0.00,OVC,,0.00,WeatherDisplay:10.37,2013-05-02 22:32:00,
2013-05-02 18:34:00,80.0,63.9,30.07,ENE,78,6.0,10.4,58,0.00,OVC,,0.00,WeatherDisplay:10.37,2013-05-02 22:34:00,
2013-05-02 18:36:00,79.8,62.7,30.06,East,96,6.5,9.2,56,0.00,OVC,,0.00,WeatherDisplay:10.37,2013-05-02 22:36:00,
2013-05-02 18:37:00,79.8,63.2,30.07,East,98,3.7,9.2,57,0.00,OVC,,0.00,WeatherDisplay:10.37,2013-05-02 22:37:00,
2013-05-02 18:39:00,79.7,63.6,30.07,ENE,67,2.4,5.8,58,0.00,OVC,,0.00,WeatherDisplay:10.37,2013-05-02 22:39:00,
2013-05-02 18:41:00,79.5,63.4,30.07,ENE,67,1.4,8.1,58,0.00,OVC,,0.00,WeatherDisplay:10.37,2013-05-02 22:41:00,
2013-05-02 18:42:00,79.4,63.3,30.07,ENE,62,1.2,3.5,58,0.00,OVC,,0.00,WeatherDisplay:10.37,2013-05-02 22:42:00,
2013-05-02 18:44:00,79.3,63.2,30.07,ENE,78,2.5,5.0,58,0.00,OVC,,0.00,WeatherDisplay:10.37,2013-05-02 22:44:00,
2013-05-02 18:46:00,79.2,63.1,30.06,East,86,3.0,4.6,58,0.00,OVC,,0.00,WeatherDisplay:10.37,2013-05-02 22:46:00,
2013-05-02 18:48:00,79.2,63.6,30.06,NE,42,2.4,3.5,59,0.00,OVC,,0.00,WeatherDisplay:10.37,2013-05-02 22:48:00,
2013-05-02 18:49:00,79.1,63.1,30.06,ENE,75,2.8,4.6,58,0.00,OVC,,0.00,WeatherDisplay:10.37,2013-05-02 22:49:00,
2013-05-02 18:50:00,79.1,63.5,30.06,ENE,58,2.4,3.5,59,0.00,OVC,,0.00,WeatherDisplay:10.37,2013-05-02 22:50:00,
2013-05-02 18:51:00,79.0,63.4,30.06,East,88,3.0,8.1,59,0.00,OVC,,0.00,WeatherDisplay:10.37,2013-05-02 22:51:00,
2013-05-02 18:53:00,78.9,63.4,30.06,East,84,3.4,5.8,59,0.00,OVC,,0.00,WeatherDisplay:10.37,2013-05-02 22:53:00,
2013-05-02 18:54:00,78.9,63.4,30.06,ENE,78,1.5,3.5,59,0.00,OVC,,0.00,WeatherDisplay:10.37,2013-05-02 22:54:00,
2013-05-02 18:55:00,78.8,63.7,30.06,ENE,72,1.6,3.5,60,0.00,OVC,,0.00,WeatherDisplay:10.37,2013-05-02 22:55:00,
2013-05-02 18:57:00,78.8,63.3,30.06,ENE,72,3.9,4.6,59,0.00,OVC,,0.00,WeatherDisplay:10.37,2013-05-02 22:57:00,
2013-05-02 18:58:00,78.8,63.7,30.06,ENE,78,2.6,5.8,60,0.00,OVC,,0.00,WeatherDisplay:10.37,2013-05-02 22:58:00,
2013-05-02 18:59:00,78.7,63.6,30.06,East,88,1.5,5.8,60,0.00,OVC,,0.00,WeatherDisplay:10.37,2013-05-02 22:59:00,
2013-05-02 19:00:00,78.7,63.6,30.06,East,87,0.4,3.5,60,0.00,OVC,,0.00,WeatherDisplay:10.37,2013-05-02 23:00:00,
2013-05-02 19:02:00,78.5,63.9,30.06,ENE,71,3.1,5.8,61,0.00,BKN,,0.00,WeatherDisplay:10.37,2013-05-02 23:02:00,
2013-05-02 19:03:00,78.5,63.9,30.06,East,84,1.4,3.5,61,0.00,BKN,,0.00,WeatherDisplay:10.37,2013-05-02 23:03:00,
2013-05-02 19:04:00,78.5,63.9,30.06,ENE,62,2.6,5.8,61,0.00,BKN,,0.00,WeatherDisplay:10.37,2013-05-02 23:04:00,
2013-05-02 19:05:00,78.5,64.4,30.06,ENE,65,0.8,3.5,62,0.00,BKN,,0.00,WeatherDisplay:10.37,2013-05-02 23:05:00,
2013-05-02 19:06:00,78.5,63.9,30.06,ENE,74,2.6,3.5,61,0.00,BKN,,0.00,WeatherDisplay:10.37,2013-05-02 23:06:00,
2013-05-02 19:07:00,78.4,64.3,30.06,East,88,1.1,3.5,62,0.00,BKN,,0.00,WeatherDisplay:10.37,2013-05-02 23:07:00,
2013-05-02 19:08:00,78.4,64.3,30.06,NE,54,1.5,3.5,62,0.00,BKN,,0.00,WeatherDisplay:10.37,2013-05-02 23:08:00,
2013-05-02 19:10:00,78.3,63.7,30.06,ENE,57,1.5,3.5,61,0.00,BKN,,0.00,WeatherDisplay:10.37,2013-05-02 23:10:00,
2013-05-02 19:11:00,78.2,63.6,30.06,ENE,71,0.1,4.0,61,0.00,BKN,,0.00,WeatherDisplay:10.37,2013-05-02 23:11:00,
2013-05-02 19:12:00,78.2,63.6,30.06,East,82,1.0,3.5,61,0.00,BKN,,0.00,WeatherDisplay:10.37,2013-05-02 23:12:00,
2013-05-02 19:13:00,78.2,64.1,30.06,ENE,63,0.8,3.5,62,0.00,BKN,,0.00,WeatherDisplay:10.37,2013-05-02 23:13:00,
2013-05-02 19:15:00,78.2,64.6,30.06,ENE,64,2.1,3.5,63,0.00,BKN,,0.00,WeatherDisplay:10.37,2013-05-02 23:15:00,
2013-05-02 19:17:00,78.1,64.0,30.06,NE,54,0.7,3.5,62,0.00,BKN,,0.00,WeatherDisplay:10.37,2013-05-02 23:17:00,
2013-05-02 19:18:00,78.0,63.9,30.06,NE,48,1.5,3.5,62,0.00,BKN,,0.00,WeatherDisplay:10.37,2013-05-02 23:18:00,
2013-05-02 19:20:00,78.0,64.4,30.06,East,92,0.5,2.0,63,0.00,BKN,,0.00,WeatherDisplay:10.37,2013-05-02 23:20:00,
2013-05-02 19:21:00,77.9,64.3,30.06,East,89,0.9,2.3,63,0.00,BKN,,0.00,WeatherDisplay:10.37,2013-05-02 23:21:00,
2013-05-02 19:22:00,77.9,63.8,30.06,ENE,77,3.8,6.0,62,0.00,BKN,,0.00,WeatherDisplay:10.37,2013-05-02 23:22:00,
2013-05-02 19:23:00,77.9,63.4,30.06,ENE,76,4.3,6.9,61,0.00,BKN,,0.00,WeatherDisplay:10.37,2013-05-02 23:23:00,
2013-05-02 19:25:00,77.9,63.8,30.06,ENE,62,0.9,3.5,62,0.00,BKN,,0.00,WeatherDisplay:10.37,2013-05-02 23:25:00,
2013-05-02 19:26:00,77.8,64.2,30.06,NE,56,0.8,3.5,63,0.00,BKN,,0.00,WeatherDisplay:10.37,2013-05-02 23:26:00,
2013-05-02 19:27:00,77.7,64.1,30.06,NE,56,0.6,3.5,63,0.00,BKN,,0.00,WeatherDisplay:10.37,2013-05-02 23:27:00,
2013-05-02 19:28:00,77.7,64.1,30.06,ENE,59,1.5,2.3,63,0.00,BKN,,0.00,WeatherDisplay:10.37,2013-05-02 23:28:00,
2013-05-02 19:29:00,77.7,64.1,30.06,ENE,59,0.9,3.5,63,0.00,BKN,,0.00,WeatherDisplay:10.37,2013-05-02 23:29:00,
2013-05-02 19:30:00,77.6,63.5,30.06,ENE,78,2.3,3.5,62,0.00,BKN,,0.00,WeatherDisplay:10.37,2013-05-02 23:30:00,
2013-05-02 19:32:00,77.5,63.5,30.06,ENE,63,1.4,5.8,62,0.00,BKN,,0.00,WeatherDisplay:10.37,2013-05-02 23:32:00,
2013-05-02 19:33:00,77.4,63.8,30.06,ENE,63,0.4,3.5,63,0.00,BKN,,0.00,WeatherDisplay:10.37,2013-05-02 23:33:00,
2013-05-02 19:34:00,77.4,63.8,30.06,ENE,66,0.8,3.5,63,0.00,BKN,,0.00,WeatherDisplay:10.37,2013-05-02 23:34:00,
2013-05-02 19:35:00,77.3,63.7,30.06,ENE,76,3.0,4.6,63,0.00,BKN,,0.00,WeatherDisplay:10.37,2013-05-02 23:35:00,
2013-05-02 19:37:00,77.3,63.3,30.06,NNE,32,3.7,4.6,62,0.00,BKN,,0.00,WeatherDisplay:10.37,2013-05-02 23:37:00,
2013-05-02 19:38:00,77.3,63.7,30.06,East,81,1.6,4.6,63,0.00,BKN,,0.00,WeatherDisplay:10.37,2013-05-02 23:38:00,
2013-05-02 19:39:00,77.2,63.6,30.06,East,87,1.2,3.5,63,0.00,BKN,,0.00,WeatherDisplay:10.37,2013-05-02 23:39:00,
2013-05-02 19:40:00,77.2,63.6,30.06,ENE,64,2.7,7.0,63,0.00,BKN,,0.00,WeatherDisplay:10.37,2013-05-02 23:40:00,
2013-05-02 19:42:00,77.1,63.5,30.06,East,81,5.5,9.2,63,0.00,BKN,,0.00,WeatherDisplay:10.37,2013-05-02 23:42:00,
2013-05-02 19:43:00,77.0,63.4,30.06,NE,45,2.8,8.1,63,0.00,BKN,,0.00,WeatherDisplay:10.37,2013-05-02 23:43:00,
2013-05-02 19:44:00,76.9,63.3,30.06,ENE,67,2.4,5.8,63,0.00,BKN,,0.00,WeatherDisplay:10.37,2013-05-02 23:44:00,
2013-05-02 19:45:00,76.8,63.2,30.06,ENE,67,3.5,5.8,63,0.00,BKN,,0.00,WeatherDisplay:10.37,2013-05-02 23:45:00,
2013-05-02 19:47:00,76.7,63.2,30.06,East,80,3.4,4.6,63,0.00,BKN,,0.00,WeatherDisplay:10.37,2013-05-02 23:47:00,
2013-05-02 19:48:00,76.7,63.2,30.06,NE,56,3.6,6.9,63,0.00,BKN,,0.00,WeatherDisplay:10.37,2013-05-02 23:48:00,
2013-05-02 19:49:00,76.6,63.1,30.06,East,88,0.4,4.6,63,0.00,BKN,,0.00,WeatherDisplay:10.37,2013-05-02 23:49:00,
2013-05-02 19:50:00,76.6,63.1,30.06,ENE,75,1.7,6.0,63,0.00,BKN,,0.00,WeatherDisplay:10.37,2013-05-02 23:50:00,
2013-05-02 19:52:00,76.5,63.0,30.06,ENE,73,3.1,9.2,63,0.00,BKN,,0.00,WeatherDisplay:10.37,2013-05-02 23:52:00,
2013-05-02 19:53:00,76.4,62.9,30.06,East,85,0.6,5.8,63,0.00,BKN,,0.00,WeatherDisplay:10.37,2013-05-02 23:53:00,
2013-05-02 19:55:00,76.4,63.3,30.06,East,85,0.1,1.1,64,0.00,BKN,,0.00,WeatherDisplay:10.37,2013-05-02 23:55:00,
2013-05-02 19:57:00,76.2,63.1,30.06,ENE,77,0.9,2.3,64,0.00,BKN,,0.00,WeatherDisplay:10.37,2013-05-02 23:57:00,
2013-05-02 19:59:00,76.1,62.6,30.06,East,80,3.3,4.0,63,0.00,BKN,,0.00,WeatherDisplay:10.37,2013-05-02 23:59:00,
2013-05-02 20:00:00,76.1,62.6,30.06,East,81,2.7,4.6,63,0.00,BKN,,0.00,WeatherDisplay:10.37,2013-05-03 00:00:00,
2013-05-02 20:01:00,76.0,62.9,30.06,ENE,76,2.2,4.6,64,0.00,BKN,,0.00,WeatherDisplay:10.37,2013-05-03 00:01:00,
2013-05-02 20:03:00,75.9,62.8,30.06,ENE,72,2.2,5.0,64,0.00,BKN,,0.00,WeatherDisplay:10.37,2013-05-03 00:03:00,
2013-05-02 20:05:00,75.8,62.8,30.06,NE,40,4.4,5.8,64,0.00,BKN,,0.00,WeatherDisplay:10.37,2013-05-03 00:05:00,
2013-05-02 20:06:00,75.7,62.2,30.06,NE,44,3.8,5.8,63,0.00,BKN,,0.00,WeatherDisplay:10.37,2013-05-03 00:06:00,
2013-05-02 20:08:00,75.6,62.6,30.06,NE,56,2.4,9.2,64,0.00,BKN,,0.00,WeatherDisplay:10.37,2013-05-03 00:08:00,
2013-05-02 20:10:00,75.4,61.9,30.06,East,91,5.4,9.2,63,0.00,BKN,,0.00,WeatherDisplay:10.37,2013-05-03 00:10:00,
2013-05-02 20:11:00,75.3,61.8,30.07,ENE,76,4.2,9.2,63,0.00,BKN,,0.00,WeatherDisplay:10.37,2013-05-03 00:11:00,
2013-05-02 20:13:00,75.2,62.2,30.06,NE,50,3.4,5.8,64,0.00,BKN,,0.00,WeatherDisplay:10.37,2013-05-03 00:13:00,
2013-05-02 20:15:00,75.1,62.1,30.06,NE,55,3.9,4.6,64,0.00,BKN,,0.00,WeatherDisplay:10.37,2013-05-03 00:15:00,
2013-05-02 20:16:00,75.1,62.1,30.06,ENE,77,2.0,5.8,64,0.00,BKN,,0.00,WeatherDisplay:10.37,2013-05-03 00:16:00,
2013-05-02 20:18:00,74.9,62.3,30.06,ENE,65,1.6,5.8,65,0.00,BKN,,0.00,WeatherDisplay:10.37,2013-05-03 00:18:00,
2013-05-02 20:20:00,74.8,62.2,30.07,ENE,74,2.4,4.0,65,0.00,BKN,,0.00,WeatherDisplay:10.37,2013-05-03 00:20:00,
2013-05-02 20:21:00,74.7,62.1,30.06,ENE,76,3.2,5.8,65,0.00,BKN,,0.00,WeatherDisplay:10.37,2013-05-03 00:21:00,
2013-05-02 20:22:00,74.7,62.1,30.06,NE,55,2.1,4.6,65,0.00,BKN,,0.00,WeatherDisplay:10.37,2013-05-03 00:22:00,
2013-05-02 20:23:00,74.6,62.5,30.06,NE,54,0.4,2.3,66,0.00,BKN,,0.00,WeatherDisplay:10.37,2013-05-03 00:23:00,
2013-05-02 20:25:00,74.5,62.4,30.07,NE,54,0.0,1.1,66,0.00,BKN,,0.00,WeatherDisplay:10.37,2013-05-03 00:25:00,
2013-05-02 20:26:00,74.4,62.3,30.06,NE,54,0.4,2.3,66,0.00,BKN,,0.00,WeatherDisplay:10.37,2013-05-03 00:26:00,
2013-05-02 20:27:00,74.4,62.3,30.06,NE,53,0.8,3.0,66,0.00,BKN,,0.00,WeatherDisplay:10.37,2013-05-03 00:27:00,
2013-05-02 20:29:00,74.3,62.6,30.07,NE,34,0.4,1.1,67,0.00,BKN,,0.00,WeatherDisplay:10.37,2013-05-03 00:29:00,
2013-05-02 20:30:00,74.2,62.5,30.07,NE,42,0.6,2.3,67,0.00,BKN,,0.00,WeatherDisplay:10.37,2013-05-03 00:30:00,
2013-05-02 20:32:00,74.1,62.4,30.07,NE,42,0.0,0.0,67,0.00,BKN,,0.00,WeatherDisplay:10.37,2013-05-03 00:32:00,
2013-05-02 20:34:00,74.0,62.3,30.07,NE,45,0.0,3.5,67,0.00,BKN,,0.00,WeatherDisplay:10.37,2013-05-03 00:34:00,
2013-05-02 20:35:00,73.9,62.7,30.07,NE,45,0.2,0.0,68,0.00,BKN,,0.00,WeatherDisplay:10.37,2013-05-03 00:35:00,
2013-05-02 20:37:00,73.9,62.2,30.07,NE,48,1.4,3.5,67,0.00,BKN,,0.00,WeatherDisplay:10.37,2013-05-03 00:37:00,
2013-05-02 20:40:00,73.7,62.5,30.07,NE,48,0.0,0.0,68,0.00,BKN,,0.00,WeatherDisplay:10.37,2013-05-03 00:40:00,
2013-05-02 20:42:00,73.6,62.4,30.07,NE,55,2.7,4.6,68,0.00,BKN,,0.00,WeatherDisplay:10.37,2013-05-03 00:42:00,
2013-05-02 20:45:00,73.4,61.8,30.07,NE,46,4.0,6.9,67,0.00,BKN,,0.00,WeatherDisplay:10.37,2013-05-03 00:45:00,
2013-05-02 20:47:00,73.4,61.8,30.07,ENE,66,0.2,3.5,67,0.00,BKN,,0.00,WeatherDisplay:10.37,2013-05-03 00:47:00,
2013-05-02 20:50:00,73.4,62.6,30.07,ENE,58,0.3,2.0,69,0.00,BKN,,0.00,WeatherDisplay:10.37,2013-05-03 00:50:00,
2013-05-02 20:51:00,73.3,61.7,30.07,ENE,59,1.3,3.5,67,0.00,BKN,,0.00,WeatherDisplay:10.37,2013-05-03 00:51:00,
2013-05-02 20:52:00,73.3,62.1,30.07,ENE,69,1.9,3.5,68,0.00,BKN,,0.00,WeatherDisplay:10.37,2013-05-03 00:52:00,
2013-05-02 20:53:00,73.3,62.1,30.07,NE,51,2.4,4.6,68,0.00,BKN,,0.00,WeatherDisplay:10.37,2013-05-03 00:53:00,
2013-05-02 20:55:00,73.2,62.0,30.07,NE,35,0.3,2.3,68,0.00,BKN,,0.00,WeatherDisplay:10.37,2013-05-03 00:55:00,
2013-05-02 20:56:00,73.2,61.6,30.07,East,84,1.1,4.0,67,0.00,BKN,,0.00,WeatherDisplay:10.37,2013-05-03 00:56:00,
2013-05-02 20:57:00,73.2,61.2,30.07,ENE,72,2.6,4.6,66,0.00,BKN,,0.00,WeatherDisplay:10.37,2013-05-03 00:57:00,
2013-05-02 20:58:00,73.1,61.1,30.07,ENE,75,2.6,4.6,66,0.00,BKN,,0.00,WeatherDisplay:10.37,2013-05-03 00:58:00,
2013-05-02 21:00:00,73.1,61.9,30.07,NE,39,0.5,3.5,68,0.00,BKN,,0.00,WeatherDisplay:10.37,2013-05-03 01:00:00,
2013-05-02 21:01:00,73.1,61.9,30.07,NE,38,0.2,2.3,68,0.00,BKN,,0.00,WeatherDisplay:10.37,2013-05-03 01:01:00,
2013-05-02 21:02:00,73.0,61.8,30.07,East,79,1.1,4.0,68,0.00,BKN,,0.00,WeatherDisplay:10.37,2013-05-03 01:02:00,
2013-05-02 21:03:00,73.0,61.8,30.07,East,82,1.8,3.5,68,0.00,BKN,,0.00,WeatherDisplay:10.37,2013-05-03 01:03:00,
2013-05-02 21:05:00,72.9,61.7,30.08,NE,53,4.6,5.0,68,0.00,BKN,,0.00,WeatherDisplay:10.37,2013-05-03 01:05:00,
2013-05-02 21:06:00,72.9,61.7,30.08,NE,49,2.0,6.9,68,0.00,BKN,,0.00,WeatherDisplay:10.37,2013-05-03 01:06:00,
2013-05-02 21:07:00,72.8,62.0,30.08,NE,48,0.2,1.1,69,0.00,BKN,,0.00,WeatherDisplay:10.37,2013-05-03 01:07:00,
2013-05-02 21:08:00,72.8,62.0,30.08,NE,54,0.5,1.1,69,0.00,BKN,,0.00,WeatherDisplay:10.37,2013-05-03 01:08:00,
2013-05-02 21:10:00,72.8,61.6,30.08,ENE,74,3.7,6.9,68,0.00,BKN,,0.00,WeatherDisplay:10.37,2013-05-03 01:10:00,
2013-05-02 21:11:00,72.7,61.9,30.08,ENE,74,0.1,1.1,69,0.00,BKN,,0.00,WeatherDisplay:10.37,2013-05-03 01:11:00,
2013-05-02 21:13:00,72.7,62.3,30.08,ENE,73,0.7,2.3,70,0.00,BKN,,0.00,WeatherDisplay:10.37,2013-05-03 01:13:00,
2013-05-02 21:15:00,72.7,61.9,30.08,NNE,31,1.7,4.0,69,0.00,BKN,,0.00,WeatherDisplay:10.37,2013-05-03 01:15:00,
2013-05-02 21:17:00,72.6,61.8,30.08,NE,49,2.2,4.6,69,0.00,BKN,,0.00,WeatherDisplay:10.37,2013-05-03 01:17:00,
2013-05-02 21:18:00,72.6,62.3,30.08,ENE,68,2.1,4.6,70,0.00,BKN,,0.00,WeatherDisplay:10.37,2013-05-03 01:18:00,
2013-05-02 21:21:00,72.4,61.7,30.08,NNE,18,2.8,5.8,69,0.00,BKN,,0.00,WeatherDisplay:10.37,2013-05-03 01:21:00,
2013-05-02 21:23:00,72.3,61.6,30.08,NE,44,0.4,2.3,69,0.00,BKN,,0.00,WeatherDisplay:10.37,2013-05-03 01:23:00,
2013-05-02 21:26:00,72.1,61.8,30.08,ENE,70,2.8,3.5,70,0.00,BKN,,0.00,WeatherDisplay:10.37,2013-05-03 01:26:00,
2013-05-02 21:28:00,72.1,61.8,30.08,NE,55,0.5,3.0,70,0.00,BKN,,0.00,WeatherDisplay:10.37,2013-05-03 01:28:00,
2013-05-02 21:29:00,72.1,61.4,30.08,ENE,77,3.5,5.8,69,0.00,BKN,,0.00,WeatherDisplay:10.37,2013-05-03 01:29:00,
2013-05-02 21:31:00,72.0,61.3,30.08,East,81,0.2,3.5,69,0.00,BKN,,0.00,WeatherDisplay:10.37,2013-05-03 01:31:00,
2013-05-02 21:33:00,71.9,61.2,30.08,East,82,1.7,3.5,69,0.00,BKN,,0.00,WeatherDisplay:10.37,2013-05-03 01:33:00,
2013-05-02 21:34:00,71.9,60.8,30.08,ENE,62,3.5,6.0,68,0.00,BKN,,0.00,WeatherDisplay:10.37,2013-05-03 01:34:00,
2013-05-02 21:36:00,71.8,60.7,30.08,ENE,78,1.1,3.0,68,0.00,BKN,,0.00,WeatherDisplay:10.37,2013-05-03 01:36:00,
2013-05-02 21:38:00,71.7,61.0,30.08,ENE,72,1.0,3.5,69,0.00,BKN,,0.00,WeatherDisplay:10.37,2013-05-03 01:38:00,
2013-05-02 21:39:00,71.7,61.0,30.08,NE,56,1.3,3.5,69,0.00,BKN,,0.00,WeatherDisplay:10.37,2013-05-03 01:39:00,
2013-05-02 21:41:00,71.6,60.9,30.08,ENE,66,1.1,5.8,69,0.00,BKN,,0.00,WeatherDisplay:10.37,2013-05-03 01:41:00,
2013-05-02 21:44:00,71.5,61.2,30.08,ENE,63,1.1,4.0,70,0.00,BKN,,0.00,WeatherDisplay:10.37,2013-05-03 01:44:00,
2013-05-02 21:46:00,71.4,60.7,30.09,East,79,3.8,4.6,69,0.00,BKN,,0.00,WeatherDisplay:10.37,2013-05-03 01:46:00,
2013-05-02 21:49:00,71.2,60.5,30.09,East,92,3.5,8.1,69,0.00,BKN,,0.00,WeatherDisplay:10.37,2013-05-03 01:49:00,
2013-05-02 21:50:00,71.2,60.5,30.09,East,83,3.0,5.0,69,0.00,BKN,,0.00,WeatherDisplay:10.37,2013-05-03 01:50:00,
2013-05-02 21:52:00,71.1,60.4,30.09,ENE,61,3.8,9.2,69,0.00,BKN,,0.00,WeatherDisplay:10.37,2013-05-03 01:52:00,
2013-05-02 21:54:00,71.0,60.7,30.09,ENE,63,3.3,6.0,70,0.00,BKN,,0.00,WeatherDisplay:10.37,2013-05-03 01:54:00,
2013-05-02 21:55:00,70.9,60.6,30.09,ENE,76,3.7,6.9,70,0.00,BKN,,0.00,WeatherDisplay:10.37,2013-05-03 01:55:00,
2013-05-02 21:57:00,70.8,60.9,30.09,ENE,73,0.7,2.3,71,0.00,BKN,,0.00,WeatherDisplay:10.37,2013-05-03 01:57:00,
2013-05-02 21:59:00,70.8,60.5,30.09,ENE,76,3.6,10.4,70,0.00,BKN,,0.00,WeatherDisplay:10.37,2013-05-03 01:59:00,
2013-05-02 22:00:00,70.8,60.1,30.09,East,92,2.5,10.4,69,0.00,BKN,,0.00,WeatherDisplay:10.37,2013-05-03 02:00:00,
2013-05-02 22:02:00,70.8,60.5,30.09,NE,50,1.6,3.0,70,0.00,BKN,,0.00,WeatherDisplay:10.37,2013-05-03 02:02:00,
2013-05-02 22:04:00,70.7,60.4,30.09,East,80,1.6,3.5,70,0.00,BKN,,0.00,WeatherDisplay:10.37,2013-05-03 02:04:00,
2013-05-02 22:05:00,70.7,60.4,30.09,East,81,0.4,4.6,70,0.00,BKN,,0.00,WeatherDisplay:10.37,2013-05-03 02:05:00,
2013-05-02 22:07:00,70.7,60.8,30.09,East,80,0.0,0.0,71,0.00,BKN,,0.00,WeatherDisplay:10.37,2013-05-03 02:07:00,
2013-05-02 22:09:00,70.6,59.9,30.09,ENE,64,3.0,4.6,69,0.00,BKN,,0.00,WeatherDisplay:10.37,2013-05-03 02:09:00,
2013-05-02 22:10:00,70.6,60.3,30.09,ENE,59,2.5,3.5,70,0.00,BKN,,0.00,WeatherDisplay:10.37,2013-05-03 02:10:00,
2013-05-02 22:12:00,70.5,60.6,30.09,ENE,63,0.6,4.6,71,0.00,BKN,,0.00,WeatherDisplay:10.37,2013-05-03 02:12:00,
2013-05-02 22:14:00,70.4,59.7,30.09,ENE,77,0.9,3.0,69,0.00,BKN,,0.00,WeatherDisplay:10.37,2013-05-03 02:14:00,
2013-05-02 22:15:00,70.4,59.7,30.09,NE,49,2.6,3.5,69,0.00,BKN,,0.00,WeatherDisplay:10.37,2013-05-03 02:15:00,
2013-05-02 22:17:00,70.4,60.5,30.09,NE,49,1.4,3.5,71,0.00,BKN,,0.00,WeatherDisplay:10.37,2013-05-03 02:17:00,
2013-05-02 22:19:00,70.3,60.1,30.09,East,83,0.5,5.8,70,0.00,BKN,,0.00,WeatherDisplay:10.37,2013-05-03 02:19:00,
2013-05-02 22:20:00,70.2,60.4,30.09,East,83,0.0,3.5,71,0.00,BKN,,0.00,WeatherDisplay:10.37,2013-05-03 02:20:00,
2013-05-02 22:21:00,70.2,60.4,30.09,East,83,0.0,1.1,71,0.00,BKN,,0.00,WeatherDisplay:10.37,2013-05-03 02:21:00,
2013-05-02 22:22:00,70.1,60.7,30.09,East,81,0.1,2.0,72,0.00,BKN,,0.00,WeatherDisplay:10.37,2013-05-03 02:22:00,
2013-05-02 22:24:00,70.1,60.7,30.09,East,81,0.0,0.0,72,0.00,BKN,,0.00,WeatherDisplay:10.37,2013-05-03 02:24:00,
2013-05-02 22:25:00,70.1,60.3,30.09,NE,35,0.5,0.0,71,0.00,BKN,,0.00,WeatherDisplay:10.37,2013-05-03 02:25:00,
2013-05-02 22:26:00,70.0,60.6,30.09,NE,38,1.2,3.5,72,0.00,BKN,,0.00,WeatherDisplay:10.37,2013-05-03 02:26:00,
2013-05-02 22:27:00,69.9,60.5,30.09,NE,38,0.3,3.5,72,0.00,BKN,,0.00,WeatherDisplay:10.37,2013-05-03 02:27:00,
2013-05-02 22:30:00,69.9,60.5,30.09,NE,38,1.2,3.5,72,0.00,BKN,,0.00,WeatherDisplay:10.37,2013-05-03 02:30:00,
2013-05-02 22:31:00,69.9,60.1,30.09,ENE,57,1.1,4.6,71,0.00,BKN,,0.00,WeatherDisplay:10.37,2013-05-03 02:31:00,
2013-05-02 22:32:00,69.8,60.8,30.09,NNE,18,0.5,2.3,73,0.00,BKN,,0.00,WeatherDisplay:10.37,2013-05-03 02:32:00,
2013-05-02 22:35:00,69.7,59.9,30.09,NE,53,1.5,6.0,71,0.00,BKN,,0.00,WeatherDisplay:10.37,2013-05-03 02:35:00,
2013-05-02 22:36:00,69.7,60.3,30.09,East,89,4.3,6.9,72,0.00,BKN,,0.00,WeatherDisplay:10.37,2013-05-03 02:36:00,
2013-05-02 22:38:00,69.5,60.1,30.09,East,90,0.0,0.0,72,0.00,BKN,,0.00,WeatherDisplay:10.37,2013-05-03 02:38:00,
2013-05-02 22:40:00,69.5,60.5,30.09,East,89,0.1,2.3,73,0.00,BKN,,0.00,WeatherDisplay:10.37,2013-05-03 02:40:00,
2013-05-02 22:41:00,69.5,60.5,30.09,East,80,1.4,2.0,73,0.00,BKN,,0.00,WeatherDisplay:10.37,2013-05-03 02:41:00,
2013-05-02 22:42:00,69.5,60.1,30.10,East,80,1.6,3.5,72,0.00,BKN,,0.00,WeatherDisplay:10.37,2013-05-03 02:42:00,
2013-05-02 22:43:00,69.5,60.5,30.09,ENE,75,0.5,3.0,73,0.00,BKN,,0.00,WeatherDisplay:10.37,2013-05-03 02:43:00,
2013-05-02 22:45:00,69.4,60.0,30.09,NE,55,0.4,3.5,72,0.00,BKN,,0.00,WeatherDisplay:10.37,2013-05-03 02:45:00,
2013-05-02 22:46:00,69.4,60.0,30.10,NE,56,1.3,3.5,72,0.00,BKN,,0.00,WeatherDisplay:10.37,2013-05-03 02:46:00,
2013-05-02 22:47:00,69.3,59.5,30.09,ENE,60,0.5,4.6,71,0.00,BKN,,0.00,WeatherDisplay:10.37,2013-05-03 02:47:00,
2013-05-02 22:48:00,69.3,59.9,30.09,ENE,66,1.6,3.0,72,0.00,BKN,,0.00,WeatherDisplay:10.37,2013-05-03 02:48:00,
2013-05-02 22:50:00,69.3,59.9,30.09,NE,50,0.4,2.3,72,0.00,BKN,,0.00,WeatherDisplay:10.37,2013-05-03 02:50:00,
2013-05-02 22:51:00,69.2,59.8,30.09,NE,51,0.7,2.3,72,0.00,BKN,,0.00,WeatherDisplay:10.37,2013-05-03 02:51:00,
2013-05-02 22:52:00,69.2,59.8,30.09,NE,51,0.0,3.5,72,0.00,BKN,,0.00,WeatherDisplay:10.37,2013-05-03 02:52:00,
2013-05-02 22:53:00,69.1,59.7,30.09,NE,43,1.3,3.5,72,0.00,BKN,,0.00,WeatherDisplay:10.37,2013-05-03 02:53:00,
2013-05-02 22:56:00,69.1,60.1,30.09,NE,43,0.1,1.1,73,0.00,BKN,,0.00,WeatherDisplay:10.37,2013-05-03 02:56:00,
2013-05-02 22:57:00,69.1,60.1,30.09,NE,43,0.2,1.1,73,0.00,BKN,,0.00,WeatherDisplay:10.37,2013-05-03 02:57:00,
2013-05-02 22:58:00,69.1,60.1,30.09,East,87,2.0,3.5,73,0.00,BKN,,0.00,WeatherDisplay:10.37,2013-05-03 02:58:00,
2013-05-02 22:59:00,69.0,60.0,30.09,East,82,0.1,3.5,73,0.00,BKN,,0.00,WeatherDisplay:10.37,2013-05-03 02:59:00,
2013-05-02 23:01:00,69.0,60.0,30.09,ENE,59,1.1,2.0,73,0.00,BKN,,0.00,WeatherDisplay:10.37,2013-05-03 03:01:00,
2013-05-02 23:02:00,69.0,60.0,30.09,ENE,59,2.0,3.5,73,0.00,BKN,,0.00,WeatherDisplay:10.37,2013-05-03 03:02:00,
2013-05-02 23:03:00,68.9,59.9,30.09,ENE,68,0.4,4.0,73,0.00,BKN,,0.00,WeatherDisplay:10.37,2013-05-03 03:03:00,
2013-05-02 23:04:00,68.9,59.5,30.09,NE,54,4.3,4.6,72,0.00,BKN,,0.00,WeatherDisplay:10.37,2013-05-03 03:04:00,
2013-05-02 23:06:00,68.8,59.8,30.09,ENE,66,0.2,3.5,73,0.00,BKN,,0.00,WeatherDisplay:10.37,2013-05-03 03:06:00,
2013-05-02 23:07:00,68.8,59.8,30.09,NE,52,0.7,2.3,73,0.00,BKN,,0.00,WeatherDisplay:10.37,2013-05-03 03:07:00,
2013-05-02 23:08:00,68.8,59.4,30.09,NE,53,0.4,3.5,72,0.00,BKN,,0.00,WeatherDisplay:10.37,2013-05-03 03:08:00,
2013-05-02 23:09:00,68.7,58.9,30.09,East,79,2.0,2.3,71,0.00,BKN,,0.00,WeatherDisplay:10.37,2013-05-03 03:09:00,
2013-05-02 23:11:00,68.7,59.7,30.09,East,79,0.0,0.0,73,0.00,BKN,,0.00,WeatherDisplay:10.37,2013-05-03 03:11:00,
2013-05-02 23:12:00,68.7,59.7,30.09,East,79,0.0,0.0,73,0.00,BKN,,0.00,WeatherDisplay:10.37,2013-05-03 03:12:00,
2013-05-02 23:13:00,68.7,59.7,30.09,East,79,0.1,1.1,73,0.00,BKN,,0.00,WeatherDisplay:10.37,2013-05-03 03:13:00,
2013-05-02 23:15:00,68.7,59.7,30.09,ENE,78,1.5,3.5,73,0.00,BKN,,0.00,WeatherDisplay:10.37,2013-05-03 03:15:00,
2013-05-02 23:16:00,68.6,59.6,30.09,ENE,71,2.9,5.8,73,0.00,BKN,,0.00,WeatherDisplay:10.37,2013-05-03 03:16:00,
2013-05-02 23:17:00,68.6,58.8,30.09,ENE,72,2.1,5.8,71,0.00,BKN,,0.00,WeatherDisplay:10.37,2013-05-03 03:17:00,
2013-05-02 23:18:00,68.6,59.6,30.09,NE,54,0.8,3.5,73,0.00,BKN,,0.00,WeatherDisplay:10.37,2013-05-03 03:18:00,
2013-05-02 23:20:00,68.5,59.1,30.09,NE,54,0.8,2.3,72,0.00,BKN,,0.00,WeatherDisplay:10.37,2013-05-03 03:20:00,
2013-05-02 23:22:00,68.5,59.1,30.09,NE,54,0.0,1.1,72,0.00,BKN,,0.00,WeatherDisplay:10.37,2013-05-03 03:22:00,
2013-05-02 23:24:00,68.4,59.0,30.09,NE,54,0.1,1.1,72,0.00,BKN,,0.00,WeatherDisplay:10.37,2013-05-03 03:24:00,
2013-05-02 23:25:00,68.4,59.4,30.09,NE,54,0.0,3.5,73,0.00,BKN,,0.00,WeatherDisplay:10.37,2013-05-03 03:25:00,
2013-05-02 23:27:00,68.3,59.3,30.09,ENE,66,0.1,3.5,73,0.00,BKN,,0.00,WeatherDisplay:10.37,2013-05-03 03:27:00,
2013-05-02 23:28:00,68.3,59.3,30.09,ENE,71,0.1,1.1,73,0.00,BKN,,0.00,WeatherDisplay:10.37,2013-05-03 03:28:00,
2013-05-02 23:29:00,68.3,59.7,30.09,NE,52,0.6,3.0,74,0.00,BKN,,0.00,WeatherDisplay:10.37,2013-05-03 03:29:00,
2013-05-02 23:30:00,68.3,59.3,30.09,ENE,59,1.0,4.0,73,0.00,BKN,,0.00,WeatherDisplay:10.37,2013-05-03 03:30:00,
2013-05-02 23:32:00,68.2,59.2,30.09,NE,49,0.0,1.1,73,0.00,BKN,,0.00,WeatherDisplay:10.37,2013-05-03 03:32:00,
2013-05-02 23:33:00,68.2,59.6,30.09,NE,51,0.6,1.0,74,0.00,BKN,,0.00,WeatherDisplay:10.37,2013-05-03 03:33:00,
2013-05-02 23:34:00,68.2,59.2,30.09,ENE,71,3.3,5.0,73,0.00,BKN,,0.00,WeatherDisplay:10.37,2013-05-03 03:34:00,
2013-05-02 23:35:00,68.1,59.5,30.09,NE,39,1.1,4.6,74,0.00,BKN,,0.00,WeatherDisplay:10.37,2013-05-03 03:35:00,
2013-05-02 23:37:00,68.0,59.0,30.09,NE,39,0.0,0.0,73,0.00,BKN,,0.00,WeatherDisplay:10.37,2013-05-03 03:37:00,
2013-05-02 23:38:00,68.0,59.0,30.09,NE,39,0.0,0.0,73,0.00,BKN,,0.00,WeatherDisplay:10.37,2013-05-03 03:38:00,
2013-05-02 23:39:00,67.9,59.3,30.09,NE,39,0.0,1.1,74,0.00,BKN,,0.00,WeatherDisplay:10.37,2013-05-03 03:39:00,
2013-05-02 23:41:00,68.0,59.4,30.09,NE,56,0.3,2.3,74,0.00,BKN,,0.00,WeatherDisplay:10.37,2013-05-03 03:41:00,
2013-05-02 23:43:00,67.9,59.3,30.09,ENE,58,3.8,4.6,74,0.00,BKN,,0.00,WeatherDisplay:10.37,2013-05-03 03:43:00,
2013-05-02 23:44:00,67.8,59.2,30.09,NE,56,4.2,5.8,74,0.00,BKN,,0.00,WeatherDisplay:10.37,2013-05-03 03:44:00,
2013-05-02 23:46:00,67.8,59.2,30.09,ENE,65,1.4,6.9,74,0.00,BKN,,0.00,WeatherDisplay:10.37,2013-05-03 03:46:00,
2013-05-02 23:48:00,67.7,59.1,30.09,ENE,64,1.4,3.5,74,0.00,BKN,,0.00,WeatherDisplay:10.37,2013-05-03 03:48:00,
2013-05-02 23:49:00,67.6,58.6,30.09,ENE,58,0.9,2.3,73,0.00,BKN,,0.00,WeatherDisplay:10.37,2013-05-03 03:49:00,
2013-05-02 23:51:00,67.6,59.0,30.09,ENE,57,0.5,2.3,74,0.00,BKN,,0.00,WeatherDisplay:10.37,2013-05-03 03:51:00,
2013-05-02 23:53:00,67.6,59.4,30.09,ENE,63,1.2,3.5,75,0.00,BKN,,0.00,WeatherDisplay:10.37,2013-05-03 03:53:00,
2013-05-02 23:54:00,67.6,59.4,30.09,ENE,64,0.0,3.5,75,0.00,BKN,,0.00,WeatherDisplay:10.37,2013-05-03 03:54:00,
2013-05-02 23:56:00,67.6,59.4,30.09,NE,54,3.2,8.1,75,0.00,BKN,,0.00,WeatherDisplay:10.37,2013-05-03 03:56:00,
2013-05-02 23:58:00,67.5,58.9,30.09,East,82,3.5,4.6,74,0.00,BKN,,0.00,WeatherDisplay:10.37,2013-05-03 03:58:00,
2013-05-02 23:59:00,67.5,58.9,30.09,East,79,3.1,4.6,74,0.00,BKN,,0.00,WeatherDisplay:10.37,2013-05-03 03:59:00,